Time,TemperatureF,DewpointF,PressureIn,WindDirection,WindDirectionDegrees,WindSpeedMPH,WindSpeedGustMPH,Humidity,HourlyPrecipIn,Conditions,Clouds,dailyrainin,SolarRadiationWatts/m^2,SoftwareType,DateUTC
2013-12-13 00:02:00,13.4,8.9,30.29,SSE,163,0.0,0.0,82,0.00,,,0.00,0,Wunderground v.1.15,2013-12-13 06:02:00,
2013-12-13 00:03:00,13.3,8.8,30.29,SSE,163,0.0,0.0,82,0.00,,,0.00,0,Wunderground v.1.15,2013-12-13 06:03:00,
2013-12-13 00:04:00,13.2,8.7,30.29,SSE,163,0.0,0.0,82,0.00,,,0.00,0,Wunderground v.1.15,2013-12-13 06:04:00,
2013-12-13 00:05:00,13.1,8.6,30.29,SSE,163,0.0,0.0,82,0.00,,,0.00,0,Wunderground v.1.15,2013-12-13 06:05:00,
2013-12-13 00:06:00,13.1,8.9,30.29,SSE,163,0.0,0.0,83,0.00,,,0.00,0,Wunderground v.1.15,2013-12-13 06:06:00,
2013-12-13 00:07:00,13.0,8.8,30.29,SSE,163,0.0,0.0,83,0.00,,,0.00,0,Wunderground v.1.15,2013-12-13 06:07:00,
2013-12-13 00:09:00,12.8,8.6,30.29,SSE,163,0.0,0.0,83,0.00,,,0.00,0,Wunderground v.1.15,2013-12-13 06:09:00,
2013-12-13 00:11:00,12.6,8.4,30.29,SSE,163,0.0,0.0,83,0.00,,,0.00,0,Wunderground v.1.15,2013-12-13 06:11:00,
2013-12-13 00:12:00,12.6,8.4,30.29,SSE,163,0.0,0.0,83,0.00,,,0.00,0,Wunderground v.1.15,2013-12-13 06:12:00,
2013-12-13 00:13:00,12.5,8.3,30.29,SSE,163,0.0,1.0,83,0.00,,,0.00,0,Wunderground v.1.15,2013-12-13 06:13:00,
2013-12-13 00:17:00,12.3,8.1,30.29,SSE,163,1.0,1.0,83,0.00,,,0.00,0,Wunderground v.1.15,2013-12-13 06:17:00,
2013-12-13 00:18:00,12.3,8.1,30.29,SSE,163,1.0,1.0,83,0.00,,,0.00,0,Wunderground v.1.15,2013-12-13 06:18:00,
2013-12-13 00:19:00,12.3,8.4,30.29,SSE,163,1.0,1.0,84,0.00,,,0.00,0,Wunderground v.1.15,2013-12-13 06:19:00,
2013-12-13 00:23:00,12.3,8.4,30.29,SSE,163,1.0,1.0,84,0.00,,,0.00,0,Wunderground v.1.15,2013-12-13 06:23:00,
2013-12-13 00:24:00,12.3,8.4,30.29,SSE,163,1.0,1.0,84,0.00,,,0.00,0,Wunderground v.1.15,2013-12-13 06:24:00,
2013-12-13 00:25:00,12.3,8.4,30.29,SSE,163,1.0,1.0,84,0.00,,,0.00,0,Wunderground v.1.15,2013-12-13 06:25:00,
2013-12-13 00:26:00,12.3,8.4,30.29,SSE,163,1.0,1.0,84,0.00,,,0.00,0,Wunderground v.1.15,2013-12-13 06:26:00,
2013-12-13 00:29:00,12.3,8.7,30.29,SSE,163,0.0,1.0,85,0.00,,,0.00,0,Wunderground v.1.15,2013-12-13 06:29:00,
2013-12-13 00:30:00,12.3,8.7,30.29,SSE,163,0.0,0.0,85,0.00,,,0.00,0,Wunderground v.1.15,2013-12-13 06:30:00,
2013-12-13 00:32:00,12.3,8.7,30.28,SSE,163,0.0,0.0,85,0.00,,,0.00,0,Wunderground v.1.15,2013-12-13 06:32:00,
2013-12-13 00:33:00,12.3,8.7,30.28,SSE,163,0.0,0.0,85,0.00,,,0.00,0,Wunderground v.1.15,2013-12-13 06:33:00,
2013-12-13 00:34:00,12.3,8.7,30.28,SSE,163,0.0,0.0,85,0.00,,,0.00,0,Wunderground v.1.15,2013-12-13 06:34:00,
2013-12-13 00:35:00,12.3,8.7,30.28,SSE,163,0.0,0.0,85,0.00,,,0.00,0,Wunderground v.1.15,2013-12-13 06:35:00,
2013-12-13 00:37:00,12.3,8.7,30.28,SSE,163,0.0,0.0,85,0.00,,,0.00,0,Wunderground v.1.15,2013-12-13 06:37:00,
2013-12-13 00:40:00,12.3,8.7,30.28,SSE,163,0.0,0.0,85,0.00,,,0.00,0,Wunderground v.1.15,2013-12-13 06:40:00,
2013-12-13 00:41:00,12.3,8.7,30.28,SSE,163,0.0,1.0,85,0.00,,,0.00,0,Wunderground v.1.15,2013-12-13 06:41:00,
2013-12-13 00:44:00,12.4,8.7,30.28,SSE,163,0.0,1.0,85,0.00,,,0.00,0,Wunderground v.1.15,2013-12-13 06:44:00,
2013-12-13 00:46:00,12.4,8.7,30.28,SSE,163,0.0,1.0,85,0.00,,,0.00,0,Wunderground v.1.15,2013-12-13 06:46:00,
2013-12-13 00:47:00,12.5,8.8,30.28,SSE,163,0.0,1.0,85,0.00,,,0.00,0,Wunderground v.1.15,2013-12-13 06:47:00,
2013-12-13 00:48:00,12.5,8.8,30.28,SSE,163,0.0,1.0,85,0.00,,,0.00,0,Wunderground v.1.15,2013-12-13 06:48:00,
2013-12-13 00:50:00,12.5,9.1,30.27,SSE,163,0.0,0.0,86,0.00,,,0.00,0,Wunderground v.1.15,2013-12-13 06:50:00,
2013-12-13 00:53:00,12.6,9.2,30.28,SSE,163,0.0,1.0,86,0.00,,,0.00,0,Wunderground v.1.15,2013-12-13 06:53:00,
2013-12-13 00:56:00,12.6,9.2,30.27,SSE,163,0.0,1.0,86,0.00,,,0.00,0,Wunderground v.1.15,2013-12-13 06:56:00,
2013-12-13 00:57:00,12.6,9.2,30.28,SSE,163,0.0,1.0,86,0.00,,,0.00,0,Wunderground v.1.15,2013-12-13 06:57:00,
2013-12-13 00:59:00,12.6,9.2,30.27,SSE,163,0.0,1.0,86,0.00,,,0.00,0,Wunderground v.1.15,2013-12-13 06:59:00,
2013-12-13 01:00:00,12.7,9.3,30.27,SSE,163,0.0,0.0,86,0.00,,,0.00,0,Wunderground v.1.15,2013-12-13 07:00:00,
2013-12-13 01:01:00,12.7,9.3,30.27,SSE,163,0.0,0.0,86,0.00,,,0.00,0,Wunderground v.1.15,2013-12-13 07:01:00,
2013-12-13 01:03:00,12.7,9.3,30.27,SSE,163,0.0,0.0,86,0.00,,,0.00,0,Wunderground v.1.15,2013-12-13 07:03:00,
2013-12-13 01:04:00,12.7,9.3,30.27,SSE,163,0.0,0.0,86,0.00,,,0.00,0,Wunderground v.1.15,2013-12-13 07:04:00,
2013-12-13 01:09:00,12.8,9.4,30.27,SSE,163,0.0,0.0,86,0.00,,,0.00,0,Wunderground v.1.15,2013-12-13 07:09:00,
2013-12-13 01:10:00,12.8,9.4,30.27,SSE,163,0.0,0.0,86,0.00,,,0.00,0,Wunderground v.1.15,2013-12-13 07:10:00,
2013-12-13 01:12:00,12.8,9.4,30.27,SSE,163,0.0,0.0,86,0.00,,,0.00,0,Wunderground v.1.15,2013-12-13 07:12:00,
2013-12-13 01:14:00,12.9,9.5,30.26,SSE,163,0.0,0.0,86,0.00,,,0.00,0,Wunderground v.1.15,2013-12-13 07:14:00,
2013-12-13 01:16:00,12.9,9.5,30.27,SSE,163,0.0,0.0,86,0.00,,,0.00,0,Wunderground v.1.15,2013-12-13 07:16:00,
2013-12-13 01:17:00,12.9,9.5,30.27,SSE,163,0.0,0.0,86,0.00,,,0.00,0,Wunderground v.1.15,2013-12-13 07:17:00,
2013-12-13 01:19:00,13.0,9.6,30.27,SSE,163,0.0,0.0,86,0.00,,,0.00,0,Wunderground v.1.15,2013-12-13 07:19:00,
2013-12-13 01:20:00,13.0,9.6,30.27,SSE,163,0.0,0.0,86,0.00,,,0.00,0,Wunderground v.1.15,2013-12-13 07:20:00,
2013-12-13 01:23:00,13.1,9.7,30.27,SSE,163,0.0,0.0,86,0.00,,,0.00,0,Wunderground v.1.15,2013-12-13 07:23:00,
2013-12-13 01:25:00,13.1,9.7,30.27,SSE,163,0.0,0.0,86,0.00,,,0.00,0,Wunderground v.1.15,2013-12-13 07:25:00,
2013-12-13 01:26:00,13.1,9.7,30.27,SSE,163,0.0,0.0,86,0.00,,,0.00,0,Wunderground v.1.15,2013-12-13 07:26:00,
2013-12-13 01:28:00,13.2,10.1,30.27,SSE,163,0.0,0.0,87,0.00,,,0.00,0,Wunderground v.1.15,2013-12-13 07:28:00,
2013-12-13 01:30:00,13.1,10.0,30.27,SSE,163,0.0,0.0,87,0.00,,,0.00,0,Wunderground v.1.15,2013-12-13 07:30:00,
2013-12-13 01:31:00,13.2,10.1,30.27,SSE,163,0.0,0.0,87,0.00,,,0.00,0,Wunderground v.1.15,2013-12-13 07:31:00,
2013-12-13 01:35:00,13.3,10.2,30.27,SSE,163,0.0,0.0,87,0.00,,,0.00,0,Wunderground v.1.15,2013-12-13 07:35:00,
2013-12-13 01:37:00,13.4,10.3,30.27,SSE,163,0.0,0.0,87,0.00,,,0.00,0,Wunderground v.1.15,2013-12-13 07:37:00,
2013-12-13 01:38:00,13.5,10.4,30.27,SSE,163,0.0,0.0,87,0.00,,,0.00,0,Wunderground v.1.15,2013-12-13 07:38:00,
2013-12-13 01:41:00,13.5,10.4,30.27,SSE,163,0.0,0.0,87,0.00,,,0.00,0,Wunderground v.1.15,2013-12-13 07:41:00,
2013-12-13 01:43:00,13.5,10.4,30.27,SSE,163,0.0,0.0,87,0.00,,,0.00,0,Wunderground v.1.15,2013-12-13 07:43:00,
2013-12-13 01:44:00,13.6,10.5,30.27,SSE,163,0.0,0.0,87,0.00,,,0.00,0,Wunderground v.1.15,2013-12-13 07:44:00,
2013-12-13 01:47:00,13.7,10.5,30.27,SSE,163,0.0,0.0,87,0.00,,,0.00,0,Wunderground v.1.15,2013-12-13 07:47:00,
2013-12-13 01:48:00,13.7,10.5,30.27,SSE,163,0.0,0.0,87,0.00,,,0.00,0,Wunderground v.1.15,2013-12-13 07:48:00,
2013-12-13 01:49:00,13.7,10.5,30.27,SSE,163,0.0,0.0,87,0.00,,,0.00,0,Wunderground v.1.15,2013-12-13 07:49:00,
2013-12-13 01:54:00,13.9,10.7,30.27,SSE,163,0.0,0.0,87,0.00,,,0.00,0,Wunderground v.1.15,2013-12-13 07:54:00,
2013-12-13 01:55:00,13.9,10.7,30.27,SSE,163,0.0,0.0,87,0.00,,,0.00,0,Wunderground v.1.15,2013-12-13 07:55:00,
2013-12-13 01:56:00,13.9,10.7,30.27,SSE,163,0.0,0.0,87,0.00,,,0.00,0,Wunderground v.1.15,2013-12-13 07:56:00,
2013-12-13 02:00:00,14.0,10.8,30.27,SSE,163,0.0,0.0,87,0.00,,,0.00,0,Wunderground v.1.15,2013-12-13 08:00:00,
2013-12-13 02:01:00,14.1,10.9,30.27,SSE,163,0.0,0.0,87,0.00,,,0.00,0,Wunderground v.1.15,2013-12-13 08:01:00,
2013-12-13 02:02:00,14.1,10.9,30.27,SSE,163,0.0,0.0,87,0.00,,,0.00,0,Wunderground v.1.15,2013-12-13 08:02:00,
2013-12-13 02:04:00,14.1,10.9,30.27,SSE,163,0.0,0.0,87,0.00,,,0.00,0,Wunderground v.1.15,2013-12-13 08:04:00,
2013-12-13 02:07:00,14.1,10.9,30.27,SSE,163,0.0,0.0,87,0.00,,,0.00,0,Wunderground v.1.15,2013-12-13 08:07:00,
2013-12-13 02:09:00,14.2,11.0,30.27,SSE,163,0.0,0.0,87,0.00,,,0.00,0,Wunderground v.1.15,2013-12-13 08:09:00,
2013-12-13 02:10:00,14.2,11.0,30.27,SSE,163,0.0,0.0,87,0.00,,,0.00,0,Wunderground v.1.15,2013-12-13 08:10:00,
2013-12-13 02:11:00,14.2,11.0,30.27,SSE,163,0.0,0.0,87,0.00,,,0.00,0,Wunderground v.1.15,2013-12-13 08:11:00,
2013-12-13 02:13:00,14.2,11.0,30.26,SSE,163,0.0,0.0,87,0.00,,,0.00,0,Wunderground v.1.15,2013-12-13 08:13:00,
2013-12-13 02:15:00,14.3,11.1,30.27,SSE,163,0.0,0.0,87,0.00,,,0.00,0,Wunderground v.1.15,2013-12-13 08:15:00,
2013-12-13 02:16:00,14.3,11.1,30.27,SSE,163,0.0,0.0,87,0.00,,,0.00,0,Wunderground v.1.15,2013-12-13 08:16:00,
2013-12-13 02:18:00,14.3,11.1,30.27,SSE,163,0.0,0.0,87,0.00,,,0.00,0,Wunderground v.1.15,2013-12-13 08:18:00,
2013-12-13 02:20:00,14.4,11.2,30.27,SSE,163,0.0,0.0,87,0.00,,,0.00,0,Wunderground v.1.15,2013-12-13 08:20:00,
2013-12-13 02:21:00,14.4,11.2,30.27,SSE,163,0.0,0.0,87,0.00,,,0.00,0,Wunderground v.1.15,2013-12-13 08:21:00,
2013-12-13 02:23:00,14.4,11.2,30.26,SSE,163,0.0,0.0,87,0.00,,,0.00,0,Wunderground v.1.15,2013-12-13 08:23:00,
2013-12-13 02:25:00,14.4,11.2,30.27,SSE,163,0.0,0.0,87,0.00,,,0.00,0,Wunderground v.1.15,2013-12-13 08:25:00,
2013-12-13 02:26:00,14.5,11.3,30.26,SSE,163,0.0,0.0,87,0.00,,,0.00,0,Wunderground v.1.15,2013-12-13 08:26:00,
2013-12-13 02:27:00,14.5,11.3,30.26,SSE,163,0.0,0.0,87,0.00,,,0.00,0,Wunderground v.1.15,2013-12-13 08:27:00,
2013-12-13 02:31:00,14.5,11.3,30.26,SSE,163,0.0,0.0,87,0.00,,,0.00,0,Wunderground v.1.15,2013-12-13 08:31:00,
2013-12-13 02:32:00,14.5,11.3,30.26,SSE,163,0.0,0.0,87,0.00,,,0.00,0,Wunderground v.1.15,2013-12-13 08:32:00,
2013-12-13 02:33:00,14.5,11.3,30.26,SSE,163,0.0,0.0,87,0.00,,,0.00,0,Wunderground v.1.15,2013-12-13 08:33:00,
2013-12-13 02:36:00,14.5,11.3,30.26,SSE,163,0.0,0.0,87,0.00,,,0.00,0,Wunderground v.1.15,2013-12-13 08:36:00,
2013-12-13 02:37:00,14.5,11.3,30.26,SSE,163,0.0,0.0,87,0.00,,,0.00,0,Wunderground v.1.15,2013-12-13 08:37:00,
2013-12-13 02:38:00,14.5,11.3,30.26,SSE,163,0.0,0.0,87,0.00,,,0.00,0,Wunderground v.1.15,2013-12-13 08:38:00,
2013-12-13 02:39:00,14.6,11.4,30.26,SSE,163,0.0,0.0,87,0.00,,,0.00,0,Wunderground v.1.15,2013-12-13 08:39:00,
2013-12-13 02:43:00,14.6,11.4,30.26,SSE,163,0.0,0.0,87,0.00,,,0.00,0,Wunderground v.1.15,2013-12-13 08:43:00,
2013-12-13 02:44:00,14.6,11.4,30.26,SSE,163,0.0,0.0,87,0.00,,,0.00,0,Wunderground v.1.15,2013-12-13 08:44:00,
2013-12-13 02:46:00,14.6,11.4,30.26,SSE,163,0.0,0.0,87,0.00,,,0.00,0,Wunderground v.1.15,2013-12-13 08:46:00,
2013-12-13 02:47:00,14.6,11.4,30.26,SSE,163,0.0,0.0,87,0.00,,,0.00,0,Wunderground v.1.15,2013-12-13 08:47:00,
2013-12-13 02:49:00,14.6,11.4,30.26,SSE,163,0.0,0.0,87,0.00,,,0.00,0,Wunderground v.1.15,2013-12-13 08:49:00,
2013-12-13 02:50:00,14.6,11.4,30.26,SSE,163,0.0,0.0,87,0.00,,,0.00,0,Wunderground v.1.15,2013-12-13 08:50:00,
2013-12-13 02:51:00,14.6,11.4,30.26,SSE,163,0.0,0.0,87,0.00,,,0.00,0,Wunderground v.1.15,2013-12-13 08:51:00,
2013-12-13 02:55:00,14.6,11.4,30.26,SSE,163,0.0,1.0,87,0.00,,,0.00,0,Wunderground v.1.15,2013-12-13 08:55:00,
2013-12-13 02:56:00,14.7,11.5,30.26,SSE,163,0.0,2.0,87,0.00,,,0.00,0,Wunderground v.1.15,2013-12-13 08:56:00,
2013-12-13 02:58:00,14.7,11.5,30.25,SSE,163,0.0,2.0,87,0.00,,,0.00,0,Wunderground v.1.15,2013-12-13 08:58:00,
2013-12-13 03:00:00,14.8,11.6,30.25,SSE,163,1.0,1.0,87,0.00,,,0.00,0,Wunderground v.1.15,2013-12-13 09:00:00,
2013-12-13 03:01:00,14.8,11.6,30.25,SSE,163,1.0,1.0,87,0.00,,,0.00,0,Wunderground v.1.15,2013-12-13 09:01:00,
2013-12-13 03:06:00,14.8,11.6,30.25,SSE,163,0.0,1.0,87,0.00,,,0.00,0,Wunderground v.1.15,2013-12-13 09:06:00,
2013-12-13 03:07:00,14.8,11.6,30.25,SSE,163,0.0,1.0,87,0.00,,,0.00,0,Wunderground v.1.15,2013-12-13 09:07:00,
2013-12-13 03:08:00,14.8,11.6,30.25,SSE,163,0.0,1.0,87,0.00,,,0.00,0,Wunderground v.1.15,2013-12-13 09:08:00,
2013-12-13 03:10:00,14.8,11.6,30.25,SSE,163,0.0,0.0,87,0.00,,,0.00,0,Wunderground v.1.15,2013-12-13 09:10:00,
2013-12-13 03:13:00,14.9,11.7,30.25,SSE,163,0.0,0.0,87,0.00,,,0.00,0,Wunderground v.1.15,2013-12-13 09:13:00,
2013-12-13 03:14:00,14.9,11.7,30.25,SSE,163,0.0,0.0,87,0.00,,,0.00,0,Wunderground v.1.15,2013-12-13 09:14:00,
2013-12-13 03:15:00,14.9,11.7,30.25,SSE,163,0.0,0.0,87,0.00,,,0.00,0,Wunderground v.1.15,2013-12-13 09:15:00,
2013-12-13 03:16:00,14.9,11.7,30.25,SSE,163,0.0,0.0,87,0.00,,,0.00,0,Wunderground v.1.15,2013-12-13 09:16:00,
2013-12-13 03:18:00,14.9,11.7,30.25,SSE,163,0.0,0.0,87,0.00,,,0.00,0,Wunderground v.1.15,2013-12-13 09:18:00,
2013-12-13 03:23:00,14.8,11.6,30.24,SSE,163,0.0,0.0,87,0.00,,,0.00,0,Wunderground v.1.15,2013-12-13 09:23:00,
2013-12-13 03:24:00,14.9,11.7,30.24,SSE,163,0.0,0.0,87,0.00,,,0.00,0,Wunderground v.1.15,2013-12-13 09:24:00,
2013-12-13 03:25:00,14.8,11.6,30.24,SSE,163,0.0,0.0,87,0.00,,,0.00,0,Wunderground v.1.15,2013-12-13 09:25:00,
2013-12-13 03:28:00,14.9,11.7,30.25,SSE,163,0.0,0.0,87,0.00,,,0.00,0,Wunderground v.1.15,2013-12-13 09:28:00,
2013-12-13 03:29:00,14.9,11.7,30.25,SSE,163,0.0,0.0,87,0.00,,,0.00,0,Wunderground v.1.15,2013-12-13 09:29:00,
2013-12-13 03:30:00,14.9,11.7,30.25,SSE,163,0.0,0.0,87,0.00,,,0.00,0,Wunderground v.1.15,2013-12-13 09:30:00,
2013-12-13 03:31:00,14.9,11.7,30.25,SSE,163,0.0,0.0,87,0.00,,,0.00,0,Wunderground v.1.15,2013-12-13 09:31:00,
2013-12-13 03:35:00,14.9,11.7,30.25,SSE,163,0.0,0.0,87,0.00,,,0.00,0,Wunderground v.1.15,2013-12-13 09:35:00,
2013-12-13 03:36:00,15.0,11.8,30.25,SSE,163,0.0,0.0,87,0.00,,,0.00,0,Wunderground v.1.15,2013-12-13 09:36:00,
2013-12-13 03:37:00,14.9,11.7,30.25,SSE,163,0.0,0.0,87,0.00,,,0.00,0,Wunderground v.1.15,2013-12-13 09:37:00,
2013-12-13 03:38:00,15.0,11.8,30.24,SSE,163,0.0,0.0,87,0.00,,,0.00,0,Wunderground v.1.15,2013-12-13 09:38:00,
2013-12-13 03:40:00,15.0,11.8,30.24,SSE,163,0.0,0.0,87,0.00,,,0.00,0,Wunderground v.1.15,2013-12-13 09:40:00,
2013-12-13 03:41:00,15.0,11.8,30.24,SSE,163,0.0,0.0,87,0.00,,,0.00,0,Wunderground v.1.15,2013-12-13 09:41:00,
2013-12-13 03:43:00,15.0,11.8,30.25,SSE,163,0.0,2.0,87,0.00,,,0.00,0,Wunderground v.1.15,2013-12-13 09:43:00,
2013-12-13 03:45:00,15.1,11.9,30.25,SSE,163,1.0,4.0,87,0.00,,,0.00,0,Wunderground v.1.15,2013-12-13 09:45:00,
2013-12-13 03:47:00,15.1,11.9,30.25,SSE,163,1.0,4.0,87,0.00,,,0.00,0,Wunderground v.1.15,2013-12-13 09:47:00,
2013-12-13 03:49:00,15.1,11.9,30.25,SSE,163,1.0,4.0,87,0.00,,,0.00,0,Wunderground v.1.15,2013-12-13 09:49:00,
2013-12-13 03:51:00,15.2,12.0,30.25,SSE,163,1.0,2.0,87,0.00,,,0.00,0,Wunderground v.1.15,2013-12-13 09:51:00,
2013-12-13 03:54:00,15.2,12.0,30.25,SSE,163,2.0,2.0,87,0.00,,,0.00,0,Wunderground v.1.15,2013-12-13 09:54:00,
2013-12-13 03:55:00,15.2,12.0,30.25,SSE,163,2.0,2.0,87,0.00,,,0.00,0,Wunderground v.1.15,2013-12-13 09:55:00,
2013-12-13 03:56:00,15.2,12.0,30.25,SSE,163,2.0,2.0,87,0.00,,,0.00,0,Wunderground v.1.15,2013-12-13 09:56:00,
2013-12-13 03:57:00,15.2,12.0,30.25,SSE,163,2.0,2.0,87,0.00,,,0.00,0,Wunderground v.1.15,2013-12-13 09:57:00,
2013-12-13 03:58:00,15.3,12.1,30.25,SSE,163,2.0,2.0,87,0.00,,,0.00,0,Wunderground v.1.15,2013-12-13 09:58:00,
2013-12-13 04:00:00,15.3,12.1,30.25,SSE,163,2.0,2.0,87,0.00,,,0.00,0,Wunderground v.1.15,2013-12-13 10:00:00,
2013-12-13 04:02:00,15.3,12.1,30.25,SSE,163,1.0,2.0,87,0.00,,,0.00,0,Wunderground v.1.15,2013-12-13 10:02:00,
2013-12-13 04:03:00,15.3,12.1,30.25,SSE,163,1.0,2.0,87,0.00,,,0.00,0,Wunderground v.1.15,2013-12-13 10:03:00,
2013-12-13 04:04:00,15.3,12.1,30.25,SSE,163,1.0,2.0,87,0.00,,,0.00,0,Wunderground v.1.15,2013-12-13 10:04:00,
2013-12-13 04:06:00,15.4,12.2,30.25,SSE,163,0.0,2.0,87,0.00,,,0.00,0,Wunderground v.1.15,2013-12-13 10:06:00,
2013-12-13 04:07:00,15.4,12.2,30.25,SSE,163,0.0,2.0,87,0.00,,,0.00,0,Wunderground v.1.15,2013-12-13 10:07:00,
2013-12-13 04:08:00,15.4,12.2,30.25,SSE,163,0.0,2.0,87,0.00,,,0.00,0,Wunderground v.1.15,2013-12-13 10:08:00,
2013-12-13 04:10:00,15.4,12.2,30.25,SSE,163,0.0,0.0,87,0.00,,,0.00,0,Wunderground v.1.15,2013-12-13 10:10:00,
2013-12-13 04:11:00,15.4,12.2,30.25,SSE,163,0.0,0.0,87,0.00,,,0.00,0,Wunderground v.1.15,2013-12-13 10:11:00,
2013-12-13 04:13:00,15.5,12.3,30.25,SSE,163,0.0,0.0,87,0.00,,,0.00,0,Wunderground v.1.15,2013-12-13 10:13:00,
2013-12-13 04:15:00,15.5,12.3,30.25,SSE,163,0.0,0.0,87,0.00,,,0.00,0,Wunderground v.1.15,2013-12-13 10:15:00,
2013-12-13 04:16:00,15.5,12.3,30.25,SSE,163,0.0,0.0,87,0.00,,,0.00,0,Wunderground v.1.15,2013-12-13 10:16:00,
2013-12-13 04:18:00,15.6,12.4,30.25,SSE,163,0.0,0.0,87,0.00,,,0.00,0,Wunderground v.1.15,2013-12-13 10:18:00,
2013-12-13 04:21:00,15.6,12.4,30.25,SSE,163,0.0,1.0,87,0.00,,,0.00,0,Wunderground v.1.15,2013-12-13 10:21:00,
2013-12-13 04:22:00,15.6,12.4,30.25,SSE,163,0.0,1.0,87,0.00,,,0.00,0,Wunderground v.1.15,2013-12-13 10:22:00,
2013-12-13 04:23:00,15.6,12.4,30.25,SSE,163,0.0,1.0,87,0.00,,,0.00,0,Wunderground v.1.15,2013-12-13 10:23:00,
2013-12-13 04:24:00,15.7,12.5,30.25,SSE,163,0.0,1.0,87,0.00,,,0.00,0,Wunderground v.1.15,2013-12-13 10:24:00,
2013-12-13 04:26:00,15.6,12.4,30.25,SSE,163,0.0,1.0,87,0.00,,,0.00,0,Wunderground v.1.15,2013-12-13 10:26:00,
2013-12-13 04:28:00,15.6,12.4,30.25,SSE,163,1.0,1.0,87,0.00,,,0.00,0,Wunderground v.1.15,2013-12-13 10:28:00,
2013-12-13 04:31:00,15.5,12.3,30.25,SSE,163,1.0,1.0,87,0.00,,,0.00,0,Wunderground v.1.15,2013-12-13 10:31:00,
2013-12-13 04:33:00,15.5,12.3,30.25,SSE,163,1.0,1.0,87,0.00,,,0.00,0,Wunderground v.1.15,2013-12-13 10:33:00,
2013-12-13 04:34:00,15.5,12.3,30.25,SSE,163,0.0,1.0,87,0.00,,,0.00,0,Wunderground v.1.15,2013-12-13 10:34:00,
2013-12-13 04:35:00,15.5,12.3,30.25,SSE,163,0.0,1.0,87,0.00,,,0.00,0,Wunderground v.1.15,2013-12-13 10:35:00,
2013-12-13 04:40:00,15.5,12.3,30.25,SSE,163,0.0,0.0,87,0.00,,,0.00,0,Wunderground v.1.15,2013-12-13 10:40:00,
2013-12-13 04:41:00,15.5,12.3,30.25,SSE,163,0.0,1.0,87,0.00,,,0.00,0,Wunderground v.1.15,2013-12-13 10:41:00,
2013-12-13 04:43:00,15.5,12.3,30.25,SSE,163,0.0,1.0,87,0.00,,,0.00,0,Wunderground v.1.15,2013-12-13 10:43:00,
2013-12-13 04:44:00,15.5,12.3,30.25,SSE,163,0.0,1.0,87,0.00,,,0.00,0,Wunderground v.1.15,2013-12-13 10:44:00,
2013-12-13 04:46:00,15.5,12.3,30.26,SSE,163,1.0,1.0,87,0.00,,,0.00,0,Wunderground v.1.15,2013-12-13 10:46:00,
2013-12-13 04:48:00,15.5,12.3,30.26,SSE,163,1.0,2.0,87,0.00,,,0.00,0,Wunderground v.1.15,2013-12-13 10:48:00,
2013-12-13 04:50:00,15.4,12.2,30.26,SSE,163,1.0,2.0,87,0.00,,,0.00,0,Wunderground v.1.15,2013-12-13 10:50:00,
2013-12-13 04:52:00,15.4,12.2,30.26,SSE,163,1.0,2.0,87,0.00,,,0.00,0,Wunderground v.1.15,2013-12-13 10:52:00,
2013-12-13 04:53:00,15.4,12.2,30.26,SSE,163,1.0,2.0,87,0.00,,,0.00,0,Wunderground v.1.15,2013-12-13 10:53:00,
2013-12-13 04:54:00,15.4,12.2,30.26,SSE,163,1.0,2.0,87,0.00,,,0.00,0,Wunderground v.1.15,2013-12-13 10:54:00,
2013-12-13 04:55:00,15.4,12.2,30.26,SSE,163,1.0,2.0,87,0.00,,,0.00,0,Wunderground v.1.15,2013-12-13 10:55:00,
2013-12-13 04:59:00,15.4,12.2,30.25,SSE,163,1.0,2.0,87,0.00,,,0.00,0,Wunderground v.1.15,2013-12-13 10:59:00,
2013-12-13 05:00:00,15.4,12.2,30.25,SSE,163,1.0,1.0,87,0.00,,,0.00,0,Wunderground v.1.15,2013-12-13 11:00:00,
2013-12-13 05:01:00,15.4,12.2,30.25,SSE,163,1.0,1.0,87,0.00,,,0.00,0,Wunderground v.1.15,2013-12-13 11:01:00,
2013-12-13 05:03:00,15.5,12.3,30.25,SSE,163,0.0,1.0,87,0.00,,,0.00,0,Wunderground v.1.15,2013-12-13 11:03:00,
2013-12-13 05:06:00,15.5,12.3,30.25,SSE,163,0.0,1.0,87,0.00,,,0.00,0,Wunderground v.1.15,2013-12-13 11:06:00,
2013-12-13 05:07:00,15.5,12.3,30.26,SSE,163,0.0,1.0,87,0.00,,,0.00,0,Wunderground v.1.15,2013-12-13 11:07:00,
2013-12-13 05:08:00,15.5,12.3,30.26,SSE,163,0.0,1.0,87,0.00,,,0.00,0,Wunderground v.1.15,2013-12-13 11:08:00,
2013-12-13 05:09:00,15.5,12.3,30.25,SSE,163,0.0,1.0,87,0.00,,,0.00,0,Wunderground v.1.15,2013-12-13 11:09:00,
2013-12-13 05:10:00,15.5,12.3,30.25,SSE,163,0.0,0.0,87,0.00,,,0.00,0,Wunderground v.1.15,2013-12-13 11:10:00,
2013-12-13 05:14:00,15.5,12.1,30.25,SSE,163,0.0,2.0,86,0.00,,,0.00,0,Wunderground v.1.15,2013-12-13 11:14:00,
2013-12-13 05:15:00,15.5,12.1,30.25,SSE,163,1.0,2.0,86,0.00,,,0.00,0,Wunderground v.1.15,2013-12-13 11:15:00,
2013-12-13 05:16:00,15.5,12.1,30.25,SSE,163,1.0,2.0,86,0.00,,,0.00,0,Wunderground v.1.15,2013-12-13 11:16:00,
2013-12-13 05:18:00,15.5,12.3,30.25,SSE,163,1.0,2.0,87,0.00,,,0.00,0,Wunderground v.1.15,2013-12-13 11:18:00,
2013-12-13 05:20:00,15.5,12.3,30.25,SSE,163,1.0,1.0,87,0.00,,,0.00,0,Wunderground v.1.15,2013-12-13 11:20:00,
2013-12-13 05:21:00,15.5,12.3,30.25,SSE,163,1.0,1.0,87,0.00,,,0.00,0,Wunderground v.1.15,2013-12-13 11:21:00,
2013-12-13 05:22:00,15.5,12.3,30.25,SSE,163,1.0,1.0,87,0.00,,,0.00,0,Wunderground v.1.15,2013-12-13 11:22:00,
2013-12-13 05:24:00,15.5,12.3,30.25,SSE,163,1.0,1.0,87,0.00,,,0.00,0,Wunderground v.1.15,2013-12-13 11:24:00,
2013-12-13 05:25:00,15.5,12.1,30.25,SSE,163,1.0,1.0,86,0.00,,,0.00,0,Wunderground v.1.15,2013-12-13 11:25:00,
2013-12-13 05:28:00,15.5,12.3,30.25,SSE,163,0.0,1.0,87,0.00,,,0.00,0,Wunderground v.1.15,2013-12-13 11:28:00,
2013-12-13 05:29:00,15.5,12.3,30.25,SSE,163,0.0,1.0,87,0.00,,,0.00,0,Wunderground v.1.15,2013-12-13 11:29:00,
2013-12-13 05:32:00,15.5,12.1,30.25,SSE,163,0.0,0.0,86,0.00,,,0.00,0,Wunderground v.1.15,2013-12-13 11:32:00,
2013-12-13 05:33:00,15.5,12.1,30.25,SSE,163,0.0,0.0,86,0.00,,,0.00,0,Wunderground v.1.15,2013-12-13 11:33:00,
2013-12-13 05:34:00,15.5,12.3,30.25,SSE,163,0.0,0.0,87,0.00,,,0.00,0,Wunderground v.1.15,2013-12-13 11:34:00,
2013-12-13 05:36:00,15.5,12.3,30.25,SSE,163,0.0,0.0,87,0.00,,,0.00,0,Wunderground v.1.15,2013-12-13 11:36:00,
2013-12-13 05:40:00,15.5,12.3,30.25,SSE,163,0.0,0.0,87,0.00,,,0.00,0,Wunderground v.1.15,2013-12-13 11:40:00,
2013-12-13 05:41:00,15.5,12.3,30.25,SSE,163,0.0,0.0,87,0.00,,,0.00,0,Wunderground v.1.15,2013-12-13 11:41:00,
2013-12-13 05:42:00,15.6,12.4,30.25,SSE,163,0.0,0.0,87,0.00,,,0.00,0,Wunderground v.1.15,2013-12-13 11:42:00,
2013-12-13 05:43:00,15.6,12.4,30.25,SSE,163,0.0,0.0,87,0.00,,,0.00,0,Wunderground v.1.15,2013-12-13 11:43:00,
2013-12-13 05:45:00,15.6,12.4,30.25,SSE,163,0.0,0.0,87,0.00,,,0.00,0,Wunderground v.1.15,2013-12-13 11:45:00,
2013-12-13 05:47:00,15.6,12.4,30.25,SSE,163,0.0,0.0,87,0.00,,,0.00,0,Wunderground v.1.15,2013-12-13 11:47:00,
2013-12-13 05:50:00,15.7,12.5,30.25,SSE,163,0.0,0.0,87,0.00,,,0.00,0,Wunderground v.1.15,2013-12-13 11:50:00,
2013-12-13 05:51:00,15.7,12.3,30.25,SSE,163,0.0,0.0,86,0.00,,,0.00,0,Wunderground v.1.15,2013-12-13 11:51:00,
2013-12-13 05:52:00,15.7,12.3,30.25,SSE,163,0.0,1.0,86,0.00,,,0.00,0,Wunderground v.1.15,2013-12-13 11:52:00,
2013-12-13 05:55:00,15.7,12.5,30.26,SSE,163,0.0,1.0,87,0.00,,,0.00,0,Wunderground v.1.15,2013-12-13 11:55:00,
2013-12-13 05:56:00,15.7,12.5,30.26,SSE,163,0.0,1.0,87,0.00,,,0.00,0,Wunderground v.1.15,2013-12-13 11:56:00,
2013-12-13 05:59:00,15.7,12.5,30.26,SSE,163,0.0,1.0,87,0.00,,,0.00,0,Wunderground v.1.15,2013-12-13 11:59:00,
2013-12-13 06:00:00,15.7,12.5,30.26,SSE,163,0.0,0.0,87,0.00,,,0.00,0,Wunderground v.1.15,2013-12-13 12:00:00,
2013-12-13 06:02:00,15.7,12.5,30.26,SSE,163,0.0,0.0,87,0.00,,,0.00,0,Wunderground v.1.15,2013-12-13 12:02:00,
2013-12-13 06:04:00,15.7,12.3,30.26,SSE,163,0.0,0.0,86,0.00,,,0.00,0,Wunderground v.1.15,2013-12-13 12:04:00,
2013-12-13 06:07:00,15.8,12.4,30.26,SSE,163,0.0,0.0,86,0.00,,,0.00,0,Wunderground v.1.15,2013-12-13 12:07:00,
2013-12-13 06:08:00,15.8,12.4,30.27,SSE,163,0.0,0.0,86,0.00,,,0.00,0,Wunderground v.1.15,2013-12-13 12:08:00,
2013-12-13 06:09:00,15.8,12.4,30.26,SSE,163,0.0,0.0,86,0.00,,,0.00,0,Wunderground v.1.15,2013-12-13 12:09:00,
2013-12-13 06:11:00,15.8,12.4,30.26,SSE,163,0.0,0.0,86,0.00,,,0.00,0,Wunderground v.1.15,2013-12-13 12:11:00,
2013-12-13 06:13:00,15.8,12.4,30.26,SSE,163,0.0,0.0,86,0.00,,,0.00,0,Wunderground v.1.15,2013-12-13 12:13:00,
2013-12-13 06:14:00,15.8,12.6,30.27,SSE,163,0.0,0.0,87,0.00,,,0.00,0,Wunderground v.1.15,2013-12-13 12:14:00,
2013-12-13 06:17:00,15.8,12.6,30.27,SSE,163,0.0,0.0,87,0.00,,,0.00,0,Wunderground v.1.15,2013-12-13 12:17:00,
2013-12-13 06:18:00,15.9,12.7,30.27,SSE,163,0.0,0.0,87,0.00,,,0.00,0,Wunderground v.1.15,2013-12-13 12:18:00,
2013-12-13 06:20:00,15.9,12.7,30.27,SSE,163,0.0,0.0,87,0.00,,,0.00,0,Wunderground v.1.15,2013-12-13 12:20:00,
2013-12-13 06:21:00,15.9,12.7,30.27,SSE,163,0.0,0.0,87,0.00,,,0.00,0,Wunderground v.1.15,2013-12-13 12:21:00,
2013-12-13 06:25:00,16.0,12.8,30.27,SSE,162,0.0,5.0,87,0.00,,,0.00,0,Wunderground v.1.15,2013-12-13 12:25:00,
2013-12-13 06:26:00,16.2,13.0,30.27,NNE,33,1.0,5.0,87,0.00,,,0.00,0,Wunderground v.1.15,2013-12-13 12:26:00,
2013-12-13 06:27:00,16.3,13.1,30.27,NE,44,1.0,5.0,87,0.00,,,0.00,0,Wunderground v.1.15,2013-12-13 12:27:00,
2013-12-13 06:31:00,16.7,13.5,30.27,NE,46,2.0,2.0,87,0.00,,,0.00,0,Wunderground v.1.15,2013-12-13 12:31:00,
2013-12-13 06:33:00,16.9,13.7,30.27,NE,46,2.0,2.0,87,0.00,,,0.00,0,Wunderground v.1.15,2013-12-13 12:33:00,
2013-12-13 06:34:00,17.0,13.8,30.27,NE,46,2.0,2.0,87,0.00,,,0.00,0,Wunderground v.1.15,2013-12-13 12:34:00,
2013-12-13 06:35:00,17.1,13.9,30.27,NE,46,2.0,2.0,87,0.00,,,0.00,0,Wunderground v.1.15,2013-12-13 12:35:00,
2013-12-13 06:36:00,17.1,13.9,30.27,NE,46,2.0,2.0,87,0.00,,,0.00,0,Wunderground v.1.15,2013-12-13 12:36:00,
2013-12-13 06:37:00,17.2,14.0,30.27,NE,46,2.0,4.0,87,0.00,,,0.00,0,Wunderground v.1.15,2013-12-13 12:37:00,
2013-12-13 06:38:00,17.3,13.8,30.27,ENE,72,2.0,4.0,86,0.00,,,0.00,0,Wunderground v.1.15,2013-12-13 12:38:00,
2013-12-13 06:41:00,17.5,14.0,30.27,NE,40,2.0,2.0,86,0.00,,,0.00,0,Wunderground v.1.15,2013-12-13 12:41:00,
2013-12-13 06:42:00,17.6,14.1,30.27,NE,40,2.0,4.0,86,0.00,,,0.00,0,Wunderground v.1.15,2013-12-13 12:42:00,
2013-12-13 06:44:00,17.7,14.2,30.27,ENE,58,3.0,4.0,86,0.00,,,0.00,0,Wunderground v.1.15,2013-12-13 12:44:00,
2013-12-13 06:46:00,17.8,14.1,30.27,ENE,58,3.0,4.0,85,0.00,,,0.00,0,Wunderground v.1.15,2013-12-13 12:46:00,
2013-12-13 06:47:00,17.9,14.2,30.27,NNE,15,3.0,4.0,85,0.00,,,0.00,0,Wunderground v.1.15,2013-12-13 12:47:00,
2013-12-13 06:50:00,17.9,14.2,30.27,ENE,63,2.0,5.0,85,0.00,,,0.00,0,Wunderground v.1.15,2013-12-13 12:50:00,
2013-12-13 06:52:00,18.0,14.0,30.27,ENE,62,3.0,5.0,84,0.00,,,0.00,0,Wunderground v.1.15,2013-12-13 12:52:00,
2013-12-13 06:53:00,18.0,14.0,30.27,NE,40,3.0,5.0,84,0.00,,,0.00,0,Wunderground v.1.15,2013-12-13 12:53:00,
2013-12-13 06:54:00,18.0,16.1,30.27,NE,40,3.0,5.0,92,0.00,,,0.00,0,Wunderground v.1.15,2013-12-13 12:54:00,
2013-12-13 06:56:00,18.0,14.0,30.27,ENE,64,3.0,5.0,84,0.00,,,0.00,0,Wunderground v.1.15,2013-12-13 12:56:00,
2013-12-13 06:57:00,18.1,14.1,30.27,North,5,3.0,5.0,84,0.00,,,0.00,0,Wunderground v.1.15,2013-12-13 12:57:00,
2013-12-13 06:59:00,18.1,14.1,30.27,NNE,17,3.0,5.0,84,0.00,,,0.00,0,Wunderground v.1.15,2013-12-13 12:59:00,
2013-12-13 07:00:00,18.1,14.1,30.27,NNW,331,3.0,5.0,84,0.00,,,0.00,0,Wunderground v.1.15,2013-12-13 13:00:00,
2013-12-13 07:02:00,18.1,14.1,30.27,NE,53,3.0,5.0,84,0.00,,,0.00,0,Wunderground v.1.15,2013-12-13 13:02:00,
2013-12-13 07:06:00,18.1,13.8,30.27,NNE,30,4.0,5.0,83,0.00,,,0.00,0,Wunderground v.1.15,2013-12-13 13:06:00,
2013-12-13 07:07:00,18.1,13.8,30.27,NE,40,4.0,5.0,83,0.00,,,0.00,0,Wunderground v.1.15,2013-12-13 13:07:00,
2013-12-13 07:10:00,18.1,13.5,30.27,NE,35,4.0,4.0,82,0.00,,,0.00,0,Wunderground v.1.15,2013-12-13 13:10:00,
2013-12-13 07:11:00,18.1,13.5,30.27,NE,35,4.0,4.0,82,0.00,,,0.00,0,Wunderground v.1.15,2013-12-13 13:11:00,
2013-12-13 07:12:00,18.1,13.5,30.27,NE,35,4.0,4.0,82,0.00,,,0.00,0,Wunderground v.1.15,2013-12-13 13:12:00,
2013-12-13 07:15:00,18.1,13.5,30.27,NE,55,3.0,4.0,82,0.00,,,0.00,0,Wunderground v.1.15,2013-12-13 13:15:00,
2013-12-13 07:16:00,18.1,13.5,30.27,NE,55,3.0,4.0,82,0.00,,,0.00,0,Wunderground v.1.15,2013-12-13 13:16:00,
2013-12-13 07:17:00,18.1,13.5,30.27,NE,55,3.0,4.0,82,0.00,,,0.00,0,Wunderground v.1.15,2013-12-13 13:17:00,
2013-12-13 07:21:00,18.1,13.5,30.28,NE,44,4.0,5.0,82,0.00,,,0.00,0,Wunderground v.1.15,2013-12-13 13:21:00,
2013-12-13 07:22:00,18.1,13.5,30.28,ENE,57,5.0,7.0,82,0.00,,,0.00,0,Wunderground v.1.15,2013-12-13 13:22:00,
2013-12-13 07:23:00,18.1,13.5,30.28,ENE,66,5.0,7.0,82,0.00,,,0.00,0,Wunderground v.1.15,2013-12-13 13:23:00,
2013-12-13 07:24:00,18.1,13.5,30.28,NE,46,6.0,7.0,82,0.00,,,0.00,0,Wunderground v.1.15,2013-12-13 13:24:00,
2013-12-13 07:28:00,18.1,13.3,30.28,ENE,76,6.0,7.0,81,0.00,,,0.00,0,Wunderground v.1.15,2013-12-13 13:28:00,
2013-12-13 07:30:00,18.0,13.2,30.28,ENE,61,5.0,5.0,81,0.00,,,0.00,0,Wunderground v.1.15,2013-12-13 13:30:00,
2013-12-13 07:31:00,18.0,13.2,30.28,ENE,61,4.0,5.0,81,0.00,,,0.00,0,Wunderground v.1.15,2013-12-13 13:31:00,
2013-12-13 07:33:00,18.0,13.2,30.27,NE,52,3.0,5.0,81,0.00,,,0.00,0,Wunderground v.1.15,2013-12-13 13:33:00,
2013-12-13 07:34:00,18.0,13.2,30.27,ENE,59,3.0,5.0,81,0.00,,,0.00,0,Wunderground v.1.15,2013-12-13 13:34:00,
2013-12-13 07:36:00,18.0,13.2,30.28,ENE,59,2.0,5.0,81,0.00,,,0.00,0,Wunderground v.1.15,2013-12-13 13:36:00,
2013-12-13 07:37:00,18.0,13.4,30.27,ENE,59,2.0,5.0,82,0.00,,,0.00,5,Wunderground v.1.15,2013-12-13 13:37:00,
2013-12-13 07:39:00,18.0,13.4,30.27,East,80,2.0,5.0,82,0.00,,,0.00,5,Wunderground v.1.15,2013-12-13 13:39:00,
2013-12-13 07:40:00,18.0,13.4,30.27,ENE,65,2.0,4.0,82,0.00,,,0.00,5,Wunderground v.1.15,2013-12-13 13:40:00,
2013-12-13 07:41:00,18.0,13.2,30.27,East,88,3.0,4.0,81,0.00,,,0.00,5,Wunderground v.1.15,2013-12-13 13:41:00,
2013-12-13 07:46:00,18.0,13.2,30.27,ENE,71,3.0,4.0,81,0.00,,,0.00,9,Wunderground v.1.15,2013-12-13 13:46:00,
2013-12-13 07:47:00,18.0,13.2,30.27,ENE,71,3.0,4.0,81,0.00,,,0.00,9,Wunderground v.1.15,2013-12-13 13:47:00,
2013-12-13 07:48:00,18.0,13.2,30.28,ENE,71,3.0,4.0,81,0.00,,,0.00,11,Wunderground v.1.15,2013-12-13 13:48:00,
2013-12-13 07:49:00,18.0,13.2,30.28,ENE,71,3.0,4.0,81,0.00,,,0.00,12,Wunderground v.1.15,2013-12-13 13:49:00,
2013-12-13 07:50:00,18.0,13.2,30.28,ENE,75,3.0,4.0,81,0.00,,,0.00,12,Wunderground v.1.15,2013-12-13 13:50:00,
2013-12-13 07:51:00,18.0,13.2,30.28,East,79,3.0,7.0,81,0.00,,,0.00,14,Wunderground v.1.15,2013-12-13 13:51:00,
2013-12-13 07:52:00,18.0,13.2,30.28,NE,52,3.0,7.0,81,0.00,,,0.00,16,Wunderground v.1.15,2013-12-13 13:52:00,
2013-12-13 07:54:00,18.0,13.2,30.28,East,84,4.0,7.0,81,0.00,,,0.00,18,Wunderground v.1.15,2013-12-13 13:54:00,
2013-12-13 07:56:00,18.0,13.2,30.29,NE,56,4.0,7.0,81,0.00,,,0.00,19,Wunderground v.1.15,2013-12-13 13:56:00,
2013-12-13 07:57:00,18.0,13.2,30.29,NE,48,4.0,7.0,81,0.00,,,0.00,21,Wunderground v.1.15,2013-12-13 13:57:00,
2013-12-13 07:59:00,18.0,13.2,30.29,NE,46,4.0,7.0,81,0.00,,,0.00,25,Wunderground v.1.15,2013-12-13 13:59:00,
2013-12-13 08:01:00,18.0,13.2,30.28,NE,44,4.0,5.0,81,0.00,,,0.00,23,Wunderground v.1.15,2013-12-13 14:01:00,
2013-12-13 08:02:00,18.0,13.2,30.28,NE,44,4.0,5.0,81,0.00,,,0.00,25,Wunderground v.1.15,2013-12-13 14:02:00,
2013-12-13 08:03:00,18.0,13.2,30.29,NE,44,4.0,5.0,81,0.00,,,0.00,25,Wunderground v.1.15,2013-12-13 14:03:00,
2013-12-13 08:04:00,18.0,13.2,30.29,NE,44,3.0,5.0,81,0.00,,,0.00,26,Wunderground v.1.15,2013-12-13 14:04:00,
2013-12-13 08:06:00,18.0,13.2,30.29,NE,44,3.0,5.0,81,0.00,,,0.00,30,Wunderground v.1.15,2013-12-13 14:06:00,
2013-12-13 08:09:00,18.0,13.2,30.29,ENE,76,2.0,5.0,81,0.00,,,0.00,33,Wunderground v.1.15,2013-12-13 14:09:00,
2013-12-13 08:10:00,18.0,13.2,30.28,ENE,58,2.0,5.0,81,0.00,,,0.00,33,Wunderground v.1.15,2013-12-13 14:10:00,
2013-12-13 08:14:00,18.0,13.2,30.28,ENE,61,3.0,6.0,81,0.00,,,0.00,39,Wunderground v.1.15,2013-12-13 14:14:00,
2013-12-13 08:15:00,18.0,13.2,30.28,ENE,63,3.0,6.0,81,0.00,,,0.00,40,Wunderground v.1.15,2013-12-13 14:15:00,
2013-12-13 08:18:00,18.0,13.2,30.28,NE,51,4.0,6.0,81,0.00,,,0.00,44,Wunderground v.1.15,2013-12-13 14:18:00,
2013-12-13 08:20:00,18.0,13.2,30.28,ENE,57,4.0,4.0,81,0.00,,,0.00,47,Wunderground v.1.15,2013-12-13 14:20:00,
2013-12-13 08:22:00,18.0,13.2,30.28,ENE,69,4.0,4.0,81,0.00,,,0.00,53,Wunderground v.1.15,2013-12-13 14:22:00,
2013-12-13 08:24:00,18.0,13.2,30.29,ENE,69,3.0,4.0,81,0.00,,,0.00,54,Wunderground v.1.15,2013-12-13 14:24:00,
2013-12-13 08:25:00,18.0,13.2,30.29,ENE,68,3.0,4.0,81,0.00,,,0.00,54,Wunderground v.1.15,2013-12-13 14:25:00,
2013-12-13 08:28:00,18.1,13.3,30.29,NNE,23,3.0,5.0,81,0.00,,,0.00,62,Wunderground v.1.15,2013-12-13 14:28:00,
2013-12-13 08:29:00,18.1,13.3,30.29,NE,39,3.0,5.0,81,0.00,,,0.00,65,Wunderground v.1.15,2013-12-13 14:29:00,
2013-12-13 08:31:00,18.1,13.3,30.29,NNE,31,3.0,4.0,81,0.00,,,0.00,70,Wunderground v.1.15,2013-12-13 14:31:00,
2013-12-13 08:32:00,18.1,13.3,30.29,NNE,31,3.0,4.0,81,0.00,,,0.00,69,Wunderground v.1.15,2013-12-13 14:32:00,
2013-12-13 08:33:00,18.1,13.3,30.29,NNE,31,3.0,4.0,81,0.00,,,0.00,67,Wunderground v.1.15,2013-12-13 14:33:00,
2013-12-13 08:36:00,18.1,13.3,30.29,ENE,75,4.0,4.0,81,0.00,,,0.00,58,Wunderground v.1.15,2013-12-13 14:36:00,
2013-12-13 08:37:00,18.1,13.3,30.29,NE,42,4.0,4.0,81,0.00,,,0.00,62,Wunderground v.1.15,2013-12-13 14:37:00,
2013-12-13 08:39:00,18.1,13.3,30.28,NNE,13,4.0,7.0,81,0.00,,,0.00,70,Wunderground v.1.15,2013-12-13 14:39:00,
2013-12-13 08:43:00,18.1,13.3,30.29,ENE,65,5.0,6.0,81,0.00,,,0.00,51,Wunderground v.1.15,2013-12-13 14:43:00,
2013-12-13 08:44:00,18.1,13.3,30.29,ENE,77,5.0,6.0,81,0.00,,,0.00,53,Wunderground v.1.15,2013-12-13 14:44:00,
2013-12-13 08:45:00,18.1,13.3,30.29,East,83,5.0,6.0,81,0.00,,,0.00,56,Wunderground v.1.15,2013-12-13 14:45:00,
2013-12-13 08:47:00,18.1,13.3,30.29,East,79,4.0,6.0,81,0.00,,,0.00,60,Wunderground v.1.15,2013-12-13 14:47:00,
2013-12-13 08:49:00,18.2,13.3,30.29,NNE,20,4.0,6.0,81,0.00,,,0.00,56,Wunderground v.1.15,2013-12-13 14:49:00,
2013-12-13 08:50:00,18.2,13.3,30.29,NE,55,4.0,5.0,81,0.00,,,0.00,54,Wunderground v.1.15,2013-12-13 14:50:00,
2013-12-13 08:51:00,18.2,13.3,30.28,NE,41,4.0,5.0,81,0.00,,,0.00,54,Wunderground v.1.15,2013-12-13 14:51:00,
2013-12-13 08:52:00,18.2,13.3,30.28,NE,37,4.0,5.0,81,0.00,,,0.00,56,Wunderground v.1.15,2013-12-13 14:52:00,
2013-12-13 08:54:00,18.2,13.3,30.28,NNE,28,4.0,6.0,81,0.00,,,0.00,67,Wunderground v.1.15,2013-12-13 14:54:00,
2013-12-13 08:57:00,18.1,13.3,30.29,NNE,28,5.0,7.0,81,0.00,,,0.00,67,Wunderground v.1.15,2013-12-13 14:57:00,
2013-12-13 08:58:00,18.1,13.3,30.29,ENE,57,5.0,7.0,81,0.00,,,0.00,79,Wunderground v.1.15,2013-12-13 14:58:00,
2013-12-13 08:59:00,18.1,13.3,30.29,ENE,70,5.0,7.0,81,0.00,,,0.00,90,Wunderground v.1.15,2013-12-13 14:59:00,
2013-12-13 09:02:00,18.1,13.3,30.29,NE,40,5.0,6.0,81,0.00,,,0.00,171,Wunderground v.1.15,2013-12-13 15:02:00,
2013-12-13 09:03:00,18.2,13.3,30.29,NE,36,5.0,6.0,81,0.00,,,0.00,171,Wunderground v.1.15,2013-12-13 15:03:00,
2013-12-13 09:07:00,18.3,13.2,30.29,NE,34,5.0,6.0,80,0.00,,,0.00,120,Wunderground v.1.15,2013-12-13 15:07:00,
2013-12-13 09:08:00,18.3,13.2,30.29,NE,49,5.0,6.0,80,0.00,,,0.00,229,Wunderground v.1.15,2013-12-13 15:08:00,
2013-12-13 09:10:00,18.4,13.3,30.29,NNE,23,5.0,6.0,80,0.00,,,0.00,220,Wunderground v.1.15,2013-12-13 15:10:00,
2013-12-13 09:12:00,18.6,13.5,30.29,ENE,71,5.0,6.0,80,0.00,,,0.00,253,Wunderground v.1.15,2013-12-13 15:12:00,
2013-12-13 09:13:00,18.6,13.5,30.28,ENE,59,5.0,6.0,80,0.00,,,0.00,271,Wunderground v.1.15,2013-12-13 15:13:00,
2013-12-13 09:14:00,18.7,13.6,30.28,NE,45,5.0,6.0,80,0.00,,,0.00,262,Wunderground v.1.15,2013-12-13 15:14:00,
2013-12-13 09:15:00,18.8,13.7,30.28,ENE,62,5.0,6.0,80,0.00,,,0.00,262,Wunderground v.1.15,2013-12-13 15:15:00,
2013-12-13 09:16:00,18.8,13.7,30.29,ENE,62,5.0,6.0,80,0.00,,,0.00,281,Wunderground v.1.15,2013-12-13 15:16:00,
2013-12-13 09:20:00,19.0,13.6,30.29,ENE,69,5.0,5.0,79,0.00,,,0.00,320,Wunderground v.1.15,2013-12-13 15:20:00,
2013-12-13 09:21:00,19.1,13.7,30.29,NE,40,5.0,7.0,79,0.00,,,0.00,315,Wunderground v.1.15,2013-12-13 15:21:00,
2013-12-13 09:22:00,19.1,13.7,30.29,NNE,27,5.0,7.0,79,0.00,,,0.00,297,Wunderground v.1.15,2013-12-13 15:22:00,
2013-12-13 09:23:00,19.1,13.7,30.29,NE,46,5.0,7.0,79,0.00,,,0.00,290,Wunderground v.1.15,2013-12-13 15:23:00,
2013-12-13 09:26:00,19.3,13.9,30.29,NNE,30,6.0,11.0,79,0.00,,,0.00,315,Wunderground v.1.15,2013-12-13 15:26:00,
2013-12-13 09:27:00,19.3,13.6,30.29,NNE,31,6.0,11.0,78,0.00,,,0.00,315,Wunderground v.1.15,2013-12-13 15:27:00,
2013-12-13 09:28:00,19.3,13.6,30.29,NE,40,7.0,11.0,78,0.00,,,0.00,285,Wunderground v.1.15,2013-12-13 15:28:00,
2013-12-13 09:29:00,19.3,13.6,30.29,NE,43,7.0,11.0,78,0.00,,,0.00,297,Wunderground v.1.15,2013-12-13 15:29:00,
2013-12-13 09:32:00,19.3,13.6,30.29,NNE,20,7.0,8.0,78,0.00,,,0.00,320,Wunderground v.1.15,2013-12-13 15:32:00,
2013-12-13 09:36:00,19.6,13.9,30.29,NE,45,7.0,8.0,78,0.00,,,0.00,308,Wunderground v.1.15,2013-12-13 15:36:00,
2013-12-13 09:37:00,19.6,13.9,30.29,NE,41,6.0,8.0,78,0.00,,,0.00,290,Wunderground v.1.15,2013-12-13 15:37:00,
2013-12-13 09:40:00,19.8,13.8,30.29,NNE,28,6.0,6.0,77,0.00,,,0.00,220,Wunderground v.1.15,2013-12-13 15:40:00,
2013-12-13 09:43:00,19.9,13.9,30.29,NE,46,5.0,6.0,77,0.00,,,0.00,165,Wunderground v.1.15,2013-12-13 15:43:00,
2013-12-13 09:44:00,20.0,13.9,30.29,NE,42,5.0,6.0,77,0.00,,,0.00,174,Wunderground v.1.15,2013-12-13 15:44:00,
2013-12-13 09:47:00,20.0,13.9,30.29,East,86,5.0,6.0,77,0.00,,,0.00,163,Wunderground v.1.15,2013-12-13 15:47:00,
2013-12-13 09:48:00,20.0,13.6,30.29,East,97,4.0,6.0,76,0.00,,,0.00,176,Wunderground v.1.15,2013-12-13 15:48:00,
2013-12-13 09:50:00,20.0,13.6,30.29,East,84,4.0,5.0,76,0.00,,,0.00,172,Wunderground v.1.15,2013-12-13 15:50:00,
2013-12-13 09:51:00,20.0,13.6,30.29,ENE,61,4.0,5.0,76,0.00,,,0.00,172,Wunderground v.1.15,2013-12-13 15:51:00,
2013-12-13 09:53:00,19.9,13.6,30.29,ENE,72,5.0,7.0,76,0.00,,,0.00,214,Wunderground v.1.15,2013-12-13 15:53:00,
2013-12-13 09:56:00,19.8,13.5,30.29,ENE,63,5.0,7.0,76,0.00,,,0.00,167,Wunderground v.1.15,2013-12-13 15:56:00,
2013-12-13 09:58:00,19.7,13.4,30.29,NNE,29,6.0,8.0,76,0.00,,,0.00,221,Wunderground v.1.15,2013-12-13 15:58:00,
2013-12-13 10:01:00,19.7,13.4,30.29,NE,51,7.0,10.0,76,0.00,,,0.00,316,Wunderground v.1.15,2013-12-13 16:01:00,
2013-12-13 10:02:00,19.7,13.4,30.29,NE,46,7.0,10.0,76,0.00,,,0.00,346,Wunderground v.1.15,2013-12-13 16:02:00,
2013-12-13 10:03:00,19.7,13.4,30.29,NE,50,7.0,10.0,76,0.00,,,0.00,380,Wunderground v.1.15,2013-12-13 16:03:00,
2013-12-13 10:07:00,20.0,13.6,30.28,ENE,61,7.0,10.0,76,0.00,,,0.00,320,Wunderground v.1.15,2013-12-13 16:07:00,
2013-12-13 10:10:00,20.1,13.7,30.29,NNE,30,7.0,8.0,76,0.00,,,0.00,281,Wunderground v.1.15,2013-12-13 16:10:00,
2013-12-13 10:11:00,20.2,13.8,30.29,NE,49,7.0,8.0,76,0.00,,,0.00,281,Wunderground v.1.15,2013-12-13 16:11:00,
2013-12-13 10:13:00,20.2,13.8,30.29,NE,38,7.0,8.0,76,0.00,,,0.00,213,Wunderground v.1.15,2013-12-13 16:13:00,
2013-12-13 10:16:00,20.2,13.8,30.29,ENE,72,7.0,8.0,76,0.00,,,0.00,218,Wunderground v.1.15,2013-12-13 16:16:00,
2013-12-13 10:18:00,20.2,13.8,30.29,East,100,6.0,8.0,76,0.00,,,0.00,160,Wunderground v.1.15,2013-12-13 16:18:00,
2013-12-13 10:21:00,20.2,13.5,30.29,NE,38,6.0,11.0,75,0.00,,,0.00,160,Wunderground v.1.15,2013-12-13 16:21:00,
2013-12-13 10:22:00,20.1,13.4,30.29,ENE,59,6.0,11.0,75,0.00,,,0.00,165,Wunderground v.1.15,2013-12-13 16:22:00,
2013-12-13 10:23:00,20.0,13.3,30.29,NE,35,6.0,11.0,75,0.00,,,0.00,246,Wunderground v.1.15,2013-12-13 16:23:00,
2013-12-13 10:24:00,20.0,13.3,30.29,NNE,31,6.0,11.0,75,0.00,,,0.00,246,Wunderground v.1.15,2013-12-13 16:24:00,
2013-12-13 10:26:00,20.0,13.3,30.29,North,360,6.0,11.0,75,0.00,,,0.00,193,Wunderground v.1.15,2013-12-13 16:26:00,
2013-12-13 10:27:00,20.0,13.6,30.29,NE,44,6.0,11.0,76,0.00,,,0.00,174,Wunderground v.1.15,2013-12-13 16:27:00,
2013-12-13 10:28:00,20.1,13.7,30.30,ENE,59,6.0,11.0,76,0.00,,,0.00,158,Wunderground v.1.15,2013-12-13 16:28:00,
2013-12-13 10:32:00,20.2,13.8,30.29,NE,51,6.0,6.0,76,0.00,,,0.00,151,Wunderground v.1.15,2013-12-13 16:32:00,
2013-12-13 10:33:00,20.2,13.5,30.30,ENE,70,6.0,6.0,75,0.00,,,0.00,155,Wunderground v.1.15,2013-12-13 16:33:00,
2013-12-13 10:34:00,20.2,13.5,30.29,NE,55,6.0,6.0,75,0.00,,,0.00,156,Wunderground v.1.15,2013-12-13 16:34:00,
2013-12-13 10:38:00,20.3,13.6,30.29,NE,55,6.0,11.0,75,0.00,,,0.00,146,Wunderground v.1.15,2013-12-13 16:38:00,
2013-12-13 10:39:00,20.2,13.5,30.29,NE,38,6.0,11.0,75,0.00,,,0.00,149,Wunderground v.1.15,2013-12-13 16:39:00,
2013-12-13 10:40:00,20.2,13.5,30.29,NE,42,7.0,10.0,75,0.00,,,0.00,155,Wunderground v.1.15,2013-12-13 16:40:00,
2013-12-13 10:44:00,20.1,13.4,30.29,NNE,23,8.0,12.0,75,0.00,,,0.00,163,Wunderground v.1.15,2013-12-13 16:44:00,
2013-12-13 10:45:00,20.1,13.4,30.29,NE,47,8.0,12.0,75,0.00,,,0.00,162,Wunderground v.1.15,2013-12-13 16:45:00,
2013-12-13 10:46:00,20.1,13.4,30.29,NNE,14,8.0,12.0,75,0.00,,,0.00,158,Wunderground v.1.15,2013-12-13 16:46:00,
2013-12-13 10:50:00,20.1,13.4,30.29,ENE,61,8.0,8.0,75,0.00,,,0.00,146,Wunderground v.1.15,2013-12-13 16:50:00,
2013-12-13 10:51:00,20.1,13.4,30.29,NE,52,7.0,8.0,75,0.00,,,0.00,160,Wunderground v.1.15,2013-12-13 16:51:00,
2013-12-13 10:52:00,20.1,13.4,30.29,NE,51,7.0,10.0,75,0.00,,,0.00,167,Wunderground v.1.15,2013-12-13 16:52:00,
2013-12-13 10:57:00,20.2,13.5,30.29,NE,42,7.0,10.0,75,0.00,,,0.00,239,Wunderground v.1.15,2013-12-13 16:57:00,
2013-12-13 10:58:00,20.3,13.6,30.29,ENE,77,7.0,10.0,75,0.00,,,0.00,225,Wunderground v.1.15,2013-12-13 16:58:00,
2013-12-13 10:59:00,20.3,13.6,30.29,ENE,69,7.0,10.0,75,0.00,,,0.00,225,Wunderground v.1.15,2013-12-13 16:59:00,
2013-12-13 11:00:00,20.3,13.3,30.28,NE,46,7.0,7.0,74,0.00,,,0.00,220,Wunderground v.1.15,2013-12-13 17:00:00,
2013-12-13 11:04:00,20.4,13.7,30.29,NNE,32,6.0,7.0,75,0.00,,,0.00,192,Wunderground v.1.15,2013-12-13 17:04:00,
2013-12-13 11:05:00,20.5,13.8,30.29,NE,46,6.0,7.0,75,0.00,,,0.00,181,Wunderground v.1.15,2013-12-13 17:05:00,
2013-12-13 11:06:00,20.5,13.8,30.29,NE,51,6.0,10.0,75,0.00,,,0.00,171,Wunderground v.1.15,2013-12-13 17:06:00,
2013-12-13 11:08:00,20.5,13.5,30.29,NNE,15,6.0,10.0,74,0.00,,,0.00,139,Wunderground v.1.15,2013-12-13 17:08:00,
2013-12-13 11:09:00,20.5,13.5,30.28,NNE,17,6.0,11.0,74,0.00,,,0.00,132,Wunderground v.1.15,2013-12-13 17:09:00,
2013-12-13 11:11:00,20.4,13.4,30.28,NNE,24,7.0,7.0,74,0.00,,,0.00,132,Wunderground v.1.15,2013-12-13 17:11:00,
2013-12-13 11:13:00,20.2,13.2,30.28,North,5,7.0,10.0,74,0.00,,,0.00,169,Wunderground v.1.15,2013-12-13 17:13:00,
2013-12-13 11:14:00,20.2,13.2,30.28,NNE,13,8.0,10.0,74,0.00,,,0.00,188,Wunderground v.1.15,2013-12-13 17:14:00,
2013-12-13 11:16:00,20.2,13.2,30.28,NNE,15,8.0,10.0,74,0.00,,,0.00,178,Wunderground v.1.15,2013-12-13 17:16:00,
2013-12-13 11:17:00,20.2,13.5,30.28,North,360,8.0,10.0,75,0.00,,,0.00,172,Wunderground v.1.15,2013-12-13 17:17:00,
2013-12-13 11:19:00,20.2,13.5,30.28,North,5,8.0,11.0,75,0.00,,,0.00,193,Wunderground v.1.15,2013-12-13 17:19:00,
2013-12-13 11:20:00,20.2,13.2,30.28,ENE,63,8.0,8.0,74,0.00,,,0.00,188,Wunderground v.1.15,2013-12-13 17:20:00,
2013-12-13 11:22:00,20.2,13.2,30.27,NNE,32,7.0,11.0,74,0.00,,,0.00,169,Wunderground v.1.15,2013-12-13 17:22:00,
2013-12-13 11:24:00,20.1,13.1,30.27,NE,50,8.0,11.0,74,0.00,,,0.00,160,Wunderground v.1.15,2013-12-13 17:24:00,
2013-12-13 11:28:00,20.1,13.1,30.27,East,82,8.0,11.0,74,0.00,,,0.00,156,Wunderground v.1.15,2013-12-13 17:28:00,
2013-12-13 11:29:00,20.1,13.1,30.27,NE,42,8.0,11.0,74,0.00,,,0.00,149,Wunderground v.1.15,2013-12-13 17:29:00,
2013-12-13 11:30:00,20.1,13.1,30.27,NE,38,8.0,8.0,74,0.00,,,0.00,149,Wunderground v.1.15,2013-12-13 17:30:00,
2013-12-13 11:31:00,20.1,13.1,30.27,ENE,62,8.0,8.0,74,0.00,,,0.00,142,Wunderground v.1.15,2013-12-13 17:31:00,
2013-12-13 11:33:00,20.1,13.1,30.27,NE,53,7.0,10.0,74,0.00,,,0.00,139,Wunderground v.1.15,2013-12-13 17:33:00,
2013-12-13 11:34:00,20.1,13.1,30.27,NE,51,7.0,12.0,74,0.00,,,0.00,141,Wunderground v.1.15,2013-12-13 17:34:00,
2013-12-13 11:35:00,20.1,13.1,30.27,ENE,75,7.0,12.0,74,0.00,,,0.00,142,Wunderground v.1.15,2013-12-13 17:35:00,
2013-12-13 11:39:00,19.9,12.9,30.27,NNE,24,9.0,13.0,74,0.00,,,0.00,156,Wunderground v.1.15,2013-12-13 17:39:00,
2013-12-13 11:40:00,19.9,12.6,30.27,East,84,9.0,9.0,73,0.00,,,0.00,167,Wunderground v.1.15,2013-12-13 17:40:00,
2013-12-13 11:42:00,19.9,12.9,30.27,ENE,65,9.0,10.0,74,0.00,,,0.00,218,Wunderground v.1.15,2013-12-13 17:42:00,
2013-12-13 11:44:00,20.0,13.0,30.27,NNE,21,9.0,10.0,74,0.00,,,0.00,234,Wunderground v.1.15,2013-12-13 17:44:00,
2013-12-13 11:46:00,20.1,13.1,30.27,NNE,17,9.0,10.0,74,0.00,,,0.00,264,Wunderground v.1.15,2013-12-13 17:46:00,
2013-12-13 11:49:00,20.3,13.3,30.27,ENE,76,7.0,10.0,74,0.00,,,0.00,257,Wunderground v.1.15,2013-12-13 17:49:00,
2013-12-13 11:50:00,20.3,13.3,30.27,NE,36,7.0,7.0,74,0.00,,,0.00,255,Wunderground v.1.15,2013-12-13 17:50:00,
2013-12-13 11:51:00,20.4,13.4,30.26,NNE,24,6.0,7.0,74,0.00,,,0.00,232,Wunderground v.1.15,2013-12-13 17:51:00,
2013-12-13 11:53:00,20.5,13.2,30.26,NE,49,6.0,7.0,73,0.00,,,0.00,216,Wunderground v.1.15,2013-12-13 17:53:00,
2013-12-13 11:56:00,20.5,13.2,30.27,ENE,78,6.0,9.0,73,0.00,,,0.00,220,Wunderground v.1.15,2013-12-13 17:56:00,
2013-12-13 11:57:00,20.6,13.0,30.27,ENE,73,6.0,9.0,72,0.00,,,0.00,234,Wunderground v.1.15,2013-12-13 17:57:00,
2013-12-13 11:59:00,20.6,13.0,30.26,ENE,59,6.0,11.0,72,0.00,,,0.00,295,Wunderground v.1.15,2013-12-13 17:59:00,
2013-12-13 12:00:00,20.6,13.0,30.26,NE,46,7.0,8.0,72,0.00,,,0.00,327,Wunderground v.1.15,2013-12-13 18:00:00,
2013-12-13 12:01:00,20.6,13.0,30.27,NE,34,7.0,8.0,72,0.00,,,0.00,396,Wunderground v.1.15,2013-12-13 18:01:00,
2013-12-13 12:04:00,20.7,13.1,30.26,NE,46,7.0,10.0,72,0.00,,,0.00,478,Wunderground v.1.15,2013-12-13 18:04:00,
2013-12-13 12:06:00,20.8,13.2,30.26,ENE,59,8.0,12.0,72,0.00,,,0.00,561,Wunderground v.1.15,2013-12-13 18:06:00,
2013-12-13 12:07:00,20.8,12.9,30.27,NE,46,8.0,12.0,71,0.00,,,0.00,592,Wunderground v.1.15,2013-12-13 18:07:00,
2013-12-13 12:09:00,20.8,12.9,30.27,NE,49,8.0,13.0,71,0.00,,,0.00,640,Wunderground v.1.15,2013-12-13 18:09:00,
2013-12-13 12:10:00,20.9,13.0,30.27,NNE,20,8.0,8.0,71,0.00,,,0.00,557,Wunderground v.1.15,2013-12-13 18:10:00,
2013-12-13 12:11:00,21.0,13.1,30.27,ENE,57,8.0,8.0,71,0.00,,,0.00,526,Wunderground v.1.15,2013-12-13 18:11:00,
2013-12-13 12:13:00,21.2,13.3,30.27,North,10,8.0,8.0,71,0.00,,,0.00,450,Wunderground v.1.15,2013-12-13 18:13:00,
2013-12-13 12:16:00,21.4,13.1,30.26,ENE,70,8.0,8.0,70,0.00,,,0.00,503,Wunderground v.1.15,2013-12-13 18:16:00,
2013-12-13 12:18:00,21.6,13.6,30.26,ESE,107,6.0,8.0,71,0.00,,,0.00,436,Wunderground v.1.15,2013-12-13 18:18:00,
2013-12-13 12:19:00,21.7,13.7,30.26,East,86,6.0,8.0,71,0.00,,,0.00,417,Wunderground v.1.15,2013-12-13 18:19:00,
2013-12-13 12:23:00,22.0,13.7,30.26,ESE,115,5.0,6.0,70,0.00,,,0.00,476,Wunderground v.1.15,2013-12-13 18:23:00,
2013-12-13 12:24:00,22.0,13.7,30.26,East,92,5.0,7.0,70,0.00,,,0.00,497,Wunderground v.1.15,2013-12-13 18:24:00,
2013-12-13 12:25:00,22.1,13.5,30.26,ENE,64,6.0,7.0,69,0.00,,,0.00,497,Wunderground v.1.15,2013-12-13 18:25:00,
2013-12-13 12:26:00,22.1,13.5,30.26,ESE,123,5.0,7.0,69,0.00,,,0.00,309,Wunderground v.1.15,2013-12-13 18:26:00,
2013-12-13 12:29:00,22.3,13.7,30.26,East,84,5.0,7.0,69,0.00,,,0.00,323,Wunderground v.1.15,2013-12-13 18:29:00,
2013-12-13 12:30:00,22.2,13.6,30.26,North,5,6.0,11.0,69,0.00,,,0.00,302,Wunderground v.1.15,2013-12-13 18:30:00,
2013-12-13 12:32:00,22.1,13.1,30.26,NE,49,6.0,12.0,68,0.00,,,0.00,272,Wunderground v.1.15,2013-12-13 18:32:00,
2013-12-13 12:33:00,21.9,13.0,30.26,ENE,68,7.0,12.0,68,0.00,,,0.00,253,Wunderground v.1.15,2013-12-13 18:33:00,
2013-12-13 12:35:00,21.7,12.8,30.26,NNE,33,7.0,12.0,68,0.00,,,0.00,246,Wunderground v.1.15,2013-12-13 18:35:00,
2013-12-13 12:38:00,21.5,12.9,30.26,NE,51,8.0,12.0,69,0.00,,,0.00,279,Wunderground v.1.15,2013-12-13 18:38:00,
2013-12-13 12:40:00,21.6,13.0,30.26,NE,51,8.0,8.0,69,0.00,,,0.00,250,Wunderground v.1.15,2013-12-13 18:40:00,
2013-12-13 12:42:00,21.6,13.0,30.26,NNE,32,8.0,10.0,69,0.00,,,0.00,244,Wunderground v.1.15,2013-12-13 18:42:00,
2013-12-13 12:43:00,21.6,13.0,30.26,North,9,8.0,10.0,69,0.00,,,0.00,251,Wunderground v.1.15,2013-12-13 18:43:00,
2013-12-13 12:45:00,21.6,13.0,30.26,NE,45,8.0,10.0,69,0.00,,,0.00,223,Wunderground v.1.15,2013-12-13 18:45:00,
2013-12-13 12:46:00,21.6,13.0,30.27,East,79,7.0,10.0,69,0.00,,,0.00,211,Wunderground v.1.15,2013-12-13 18:46:00,
2013-12-13 12:48:00,21.6,13.0,30.26,NE,55,7.0,10.0,69,0.00,,,0.00,206,Wunderground v.1.15,2013-12-13 18:48:00,
2013-12-13 12:49:00,21.6,12.7,30.26,ENE,73,7.0,11.0,68,0.00,,,0.00,206,Wunderground v.1.15,2013-12-13 18:49:00,
2013-12-13 12:50:00,21.6,13.0,30.27,NNE,32,7.0,12.0,69,0.00,,,0.00,213,Wunderground v.1.15,2013-12-13 18:50:00,
2013-12-13 12:51:00,21.6,13.0,30.26,NE,55,7.0,14.0,69,0.00,,,0.00,195,Wunderground v.1.15,2013-12-13 18:51:00,
2013-12-13 12:53:00,21.5,12.6,30.26,ENE,58,7.0,14.0,68,0.00,,,0.00,183,Wunderground v.1.15,2013-12-13 18:53:00,
2013-12-13 12:57:00,21.5,12.6,30.26,NE,49,8.0,14.0,68,0.00,,,0.00,174,Wunderground v.1.15,2013-12-13 18:57:00,
2013-12-13 12:58:00,21.5,12.6,30.26,NE,51,8.0,14.0,68,0.00,,,0.00,172,Wunderground v.1.15,2013-12-13 18:58:00,
2013-12-13 12:59:00,21.4,12.5,30.26,NE,51,8.0,14.0,68,0.00,,,0.00,171,Wunderground v.1.15,2013-12-13 18:59:00,
2013-12-13 13:00:00,21.4,12.1,30.26,NE,51,8.0,8.0,67,0.00,,,0.00,171,Wunderground v.1.15,2013-12-13 19:00:00,
2013-12-13 13:02:00,21.3,12.4,30.26,NE,42,7.0,8.0,68,0.00,,,0.00,167,Wunderground v.1.15,2013-12-13 19:02:00,
2013-12-13 13:05:00,21.3,12.4,30.26,NE,54,7.0,8.0,68,0.00,,,0.00,160,Wunderground v.1.15,2013-12-13 19:05:00,
2013-12-13 13:06:00,21.4,12.5,30.26,East,83,7.0,8.0,68,0.00,,,0.00,156,Wunderground v.1.15,2013-12-13 19:06:00,
2013-12-13 13:09:00,21.5,12.6,30.26,ESE,111,6.0,8.0,68,0.00,,,0.00,137,Wunderground v.1.15,2013-12-13 19:09:00,
2013-12-13 13:11:00,21.6,12.7,30.26,NE,40,6.0,6.0,68,0.00,,,0.00,116,Wunderground v.1.15,2013-12-13 19:11:00,
2013-12-13 13:13:00,21.6,12.7,30.26,NE,34,6.0,6.0,68,0.00,,,0.00,114,Wunderground v.1.15,2013-12-13 19:13:00,
2013-12-13 13:14:00,21.6,12.7,30.26,NE,38,5.0,6.0,68,0.00,,,0.00,114,Wunderground v.1.15,2013-12-13 19:14:00,
2013-12-13 13:15:00,21.6,13.0,30.26,East,101,5.0,6.0,69,0.00,,,0.00,113,Wunderground v.1.15,2013-12-13 19:15:00,
2013-12-13 13:16:00,21.7,13.1,30.26,NE,48,5.0,6.0,69,0.00,,,0.00,113,Wunderground v.1.15,2013-12-13 19:16:00,
2013-12-13 13:18:00,21.7,13.1,30.26,NE,55,4.0,10.0,69,0.00,,,0.00,109,Wunderground v.1.15,2013-12-13 19:18:00,
2013-12-13 13:20:00,21.7,12.8,30.26,ENE,61,5.0,10.0,68,0.00,,,0.00,104,Wunderground v.1.15,2013-12-13 19:20:00,
2013-12-13 13:22:00,21.6,12.3,30.26,ENE,59,6.0,15.0,67,0.00,,,0.00,100,Wunderground v.1.15,2013-12-13 19:22:00,
2013-12-13 13:25:00,21.5,12.2,30.26,NE,50,7.0,15.0,67,0.00,,,0.00,118,Wunderground v.1.15,2013-12-13 19:25:00,
2013-12-13 13:27:00,21.4,12.1,30.25,East,82,8.0,15.0,67,0.00,,,0.00,148,Wunderground v.1.15,2013-12-13 19:27:00,
2013-12-13 13:29:00,21.5,12.6,30.25,East,84,8.0,15.0,68,0.00,,,0.00,151,Wunderground v.1.15,2013-12-13 19:29:00,
2013-12-13 13:30:00,21.5,12.6,30.25,East,80,7.0,7.0,68,0.00,,,0.00,144,Wunderground v.1.15,2013-12-13 19:30:00,
2013-12-13 13:31:00,21.5,12.6,30.25,NE,55,7.0,7.0,68,0.00,,,0.00,141,Wunderground v.1.15,2013-12-13 19:31:00,
2013-12-13 13:32:00,21.6,12.7,30.26,ENE,71,6.0,7.0,68,0.00,,,0.00,142,Wunderground v.1.15,2013-12-13 19:32:00,
2013-12-13 13:36:00,21.6,12.7,30.25,ESE,111,5.0,7.0,68,0.00,,,0.00,162,Wunderground v.1.15,2013-12-13 19:36:00,
2013-12-13 13:38:00,21.7,12.8,30.25,NE,49,6.0,9.0,68,0.00,,,0.00,167,Wunderground v.1.15,2013-12-13 19:38:00,
2013-12-13 13:39:00,21.7,12.8,30.25,NE,49,6.0,9.0,68,0.00,,,0.00,169,Wunderground v.1.15,2013-12-13 19:39:00,
2013-12-13 13:40:00,21.7,12.8,30.25,NE,42,6.0,6.0,68,0.00,,,0.00,162,Wunderground v.1.15,2013-12-13 19:40:00,
2013-12-13 13:41:00,21.7,12.8,30.26,ENE,71,6.0,6.0,68,0.00,,,0.00,153,Wunderground v.1.15,2013-12-13 19:41:00,
2013-12-13 13:44:00,21.8,12.9,30.26,ESE,103,6.0,7.0,68,0.00,,,0.00,146,Wunderground v.1.15,2013-12-13 19:44:00,
2013-12-13 13:45:00,21.8,12.9,30.25,ENE,62,6.0,7.0,68,0.00,,,0.00,142,Wunderground v.1.15,2013-12-13 19:45:00,
2013-12-13 13:47:00,21.9,13.0,30.25,East,98,6.0,7.0,68,0.00,,,0.00,142,Wunderground v.1.15,2013-12-13 19:47:00,
2013-12-13 13:52:00,22.0,13.0,30.25,NE,51,5.0,7.0,68,0.00,,,0.00,165,Wunderground v.1.15,2013-12-13 19:52:00,
2013-12-13 13:53:00,22.0,13.0,30.25,ENE,65,5.0,7.0,68,0.00,,,0.00,171,Wunderground v.1.15,2013-12-13 19:53:00,
2013-12-13 13:54:00,22.0,13.0,30.25,NE,46,5.0,7.0,68,0.00,,,0.00,199,Wunderground v.1.15,2013-12-13 19:54:00,
2013-12-13 13:57:00,22.1,13.1,30.25,NNE,22,5.0,9.0,68,0.00,,,0.00,190,Wunderground v.1.15,2013-12-13 19:57:00,
2013-12-13 13:59:00,22.1,13.1,30.25,NNE,30,6.0,9.0,68,0.00,,,0.00,200,Wunderground v.1.15,2013-12-13 19:59:00,
2013-12-13 14:01:00,22.1,13.1,30.25,NE,46,6.0,9.0,68,0.00,,,0.00,186,Wunderground v.1.15,2013-12-13 20:01:00,
2013-12-13 14:02:00,22.0,13.0,30.25,NE,53,6.0,9.0,68,0.00,,,0.00,181,Wunderground v.1.15,2013-12-13 20:02:00,
2013-12-13 14:03:00,22.1,13.1,30.25,NE,40,6.0,9.0,68,0.00,,,0.00,181,Wunderground v.1.15,2013-12-13 20:03:00,
2013-12-13 14:05:00,22.1,13.1,30.25,NNE,29,6.0,9.0,68,0.00,,,0.00,179,Wunderground v.1.15,2013-12-13 20:05:00,
2013-12-13 14:06:00,22.1,12.8,30.25,NE,35,7.0,10.0,67,0.00,,,0.00,229,Wunderground v.1.15,2013-12-13 20:06:00,
2013-12-13 14:09:00,22.0,12.7,30.25,NE,34,7.0,10.0,67,0.00,,,0.00,193,Wunderground v.1.15,2013-12-13 20:09:00,
2013-12-13 14:10:00,22.0,12.7,30.25,ENE,66,8.0,12.0,67,0.00,,,0.00,190,Wunderground v.1.15,2013-12-13 20:10:00,
2013-12-13 14:11:00,21.9,12.6,30.25,SE,146,8.0,12.0,67,0.00,,,0.00,195,Wunderground v.1.15,2013-12-13 20:11:00,
2013-12-13 14:13:00,21.8,12.5,30.25,NE,53,9.0,12.0,67,0.00,,,0.00,197,Wunderground v.1.15,2013-12-13 20:13:00,
2013-12-13 14:15:00,21.7,12.4,30.25,NE,36,9.0,12.0,67,0.00,,,0.00,206,Wunderground v.1.15,2013-12-13 20:15:00,
2013-12-13 14:16:00,21.7,12.4,30.25,North,5,8.0,12.0,67,0.00,,,0.00,225,Wunderground v.1.15,2013-12-13 20:16:00,
2013-12-13 14:19:00,21.8,12.5,30.25,ENE,68,9.0,12.0,67,0.00,,,0.00,244,Wunderground v.1.15,2013-12-13 20:19:00,
2013-12-13 14:20:00,21.8,12.5,30.25,East,93,9.0,9.0,67,0.00,,,0.00,207,Wunderground v.1.15,2013-12-13 20:20:00,
2013-12-13 14:21:00,21.8,12.5,30.25,ENE,70,9.0,9.0,67,0.00,,,0.00,202,Wunderground v.1.15,2013-12-13 20:21:00,
2013-12-13 14:22:00,21.8,12.5,30.25,ENE,72,8.0,9.0,67,0.00,,,0.00,197,Wunderground v.1.15,2013-12-13 20:22:00,
2013-12-13 14:25:00,21.9,13.0,30.25,NNE,27,9.0,11.0,68,0.00,,,0.00,185,Wunderground v.1.15,2013-12-13 20:25:00,
2013-12-13 14:26:00,21.9,13.0,30.25,NNE,29,9.0,11.0,68,0.00,,,0.00,185,Wunderground v.1.15,2013-12-13 20:26:00,
2013-12-13 14:28:00,21.9,12.6,30.26,North,11,8.0,11.0,67,0.00,,,0.00,185,Wunderground v.1.15,2013-12-13 20:28:00,
2013-12-13 14:30:00,22.0,12.7,30.26,NNE,16,7.0,7.0,67,0.00,,,0.00,181,Wunderground v.1.15,2013-12-13 20:30:00,
2013-12-13 14:32:00,22.0,12.7,30.26,NE,42,7.0,7.0,67,0.00,,,0.00,165,Wunderground v.1.15,2013-12-13 20:32:00,
2013-12-13 14:34:00,22.0,12.7,30.26,NNE,32,8.0,8.0,67,0.00,,,0.00,153,Wunderground v.1.15,2013-12-13 20:34:00,
2013-12-13 14:35:00,22.0,12.7,30.26,NE,46,7.0,8.0,67,0.00,,,0.00,148,Wunderground v.1.15,2013-12-13 20:35:00,
2013-12-13 14:37:00,22.0,13.0,30.26,NE,46,7.0,8.0,68,0.00,,,0.00,132,Wunderground v.1.15,2013-12-13 20:37:00,
2013-12-13 14:40:00,22.0,13.0,30.26,NNE,22,6.0,6.0,68,0.00,,,0.00,127,Wunderground v.1.15,2013-12-13 20:40:00,
2013-12-13 14:42:00,22.0,13.0,30.26,NNE,25,6.0,12.0,68,0.00,,,0.00,121,Wunderground v.1.15,2013-12-13 20:42:00,
2013-12-13 14:45:00,21.9,12.6,30.26,NNE,32,6.0,12.0,67,0.00,,,0.00,120,Wunderground v.1.15,2013-12-13 20:45:00,
2013-12-13 14:47:00,21.9,12.6,30.26,NNE,33,7.0,12.0,67,0.00,,,0.00,118,Wunderground v.1.15,2013-12-13 20:47:00,
2013-12-13 14:48:00,21.8,12.5,30.26,NE,42,7.0,12.0,67,0.00,,,0.00,116,Wunderground v.1.15,2013-12-13 20:48:00,
2013-12-13 14:50:00,21.8,12.5,30.26,NE,49,7.0,10.0,67,0.00,,,0.00,113,Wunderground v.1.15,2013-12-13 20:50:00,
2013-12-13 14:52:00,21.8,12.5,30.26,NE,53,7.0,10.0,67,0.00,,,0.00,109,Wunderground v.1.15,2013-12-13 20:52:00,
2013-12-13 14:53:00,21.7,12.8,30.26,NE,55,7.0,10.0,68,0.00,,,0.00,105,Wunderground v.1.15,2013-12-13 20:53:00,
2013-12-13 14:54:00,21.8,12.9,30.26,North,5,6.0,10.0,68,0.00,,,0.00,100,Wunderground v.1.15,2013-12-13 20:54:00,
2013-12-13 14:56:00,21.8,12.9,30.26,NE,38,6.0,11.0,68,0.00,,,0.00,95,Wunderground v.1.15,2013-12-13 20:56:00,
2013-12-13 14:58:00,21.8,12.9,30.26,NNE,27,6.0,11.0,68,0.00,,,0.00,90,Wunderground v.1.15,2013-12-13 20:58:00,
2013-12-13 15:00:00,21.8,12.9,30.26,NE,34,6.0,6.0,68,0.00,,,0.00,84,Wunderground v.1.15,2013-12-13 21:00:00,
2013-12-13 15:01:00,21.8,12.9,30.26,North,10,6.0,6.0,68,0.00,,,0.00,83,Wunderground v.1.15,2013-12-13 21:01:00,
2013-12-13 15:02:00,21.8,12.9,30.26,NE,46,6.0,6.0,68,0.00,,,0.00,81,Wunderground v.1.15,2013-12-13 21:02:00,
2013-12-13 15:05:00,21.8,12.9,30.26,NE,42,6.0,6.0,68,0.00,,,0.00,76,Wunderground v.1.15,2013-12-13 21:05:00,
2013-12-13 15:07:00,21.9,13.0,30.26,NE,37,6.0,6.0,68,0.00,,,0.00,74,Wunderground v.1.15,2013-12-13 21:07:00,
2013-12-13 15:09:00,21.8,12.9,30.26,North,11,6.0,9.0,68,0.00,,,0.00,69,Wunderground v.1.15,2013-12-13 21:09:00,
2013-12-13 15:10:00,21.8,12.9,30.26,ENE,72,6.0,8.0,68,0.00,,,0.00,69,Wunderground v.1.15,2013-12-13 21:10:00,
2013-12-13 15:11:00,21.8,12.9,30.26,NE,38,6.0,8.0,68,0.00,,,0.00,67,Wunderground v.1.15,2013-12-13 21:11:00,
2013-12-13 15:14:00,21.8,12.5,30.26,ENE,59,6.0,10.0,67,0.00,,,0.00,60,Wunderground v.1.15,2013-12-13 21:14:00,
2013-12-13 15:16:00,21.7,12.8,30.26,NE,50,7.0,12.0,68,0.00,,,0.00,56,Wunderground v.1.15,2013-12-13 21:16:00,
2013-12-13 15:17:00,21.7,12.4,30.26,ENE,58,8.0,12.0,67,0.00,,,0.00,56,Wunderground v.1.15,2013-12-13 21:17:00,
2013-12-13 15:21:00,21.6,12.7,30.26,ENE,57,9.0,11.0,68,0.00,,,0.00,51,Wunderground v.1.15,2013-12-13 21:21:00,
2013-12-13 15:22:00,21.5,12.6,30.26,ENE,65,9.0,11.0,68,0.00,,,0.00,49,Wunderground v.1.15,2013-12-13 21:22:00,
2013-12-13 15:23:00,21.5,12.6,30.26,NE,45,8.0,11.0,68,0.00,,,0.00,49,Wunderground v.1.15,2013-12-13 21:23:00,
2013-12-13 15:26:00,21.6,12.7,30.27,ENE,70,7.0,11.0,68,0.00,,,0.00,47,Wunderground v.1.15,2013-12-13 21:26:00,
2013-12-13 15:27:00,21.6,12.7,30.26,East,94,6.0,11.0,68,0.00,,,0.00,47,Wunderground v.1.15,2013-12-13 21:27:00,
2013-12-13 15:29:00,21.6,12.7,30.27,NE,34,5.0,11.0,68,0.00,,,0.00,47,Wunderground v.1.15,2013-12-13 21:29:00,
2013-12-13 15:30:00,21.6,13.0,30.27,NE,53,5.0,8.0,69,0.00,,,0.00,47,Wunderground v.1.15,2013-12-13 21:30:00,
2013-12-13 15:32:00,21.6,13.0,30.27,NE,53,5.0,8.0,69,0.00,,,0.00,46,Wunderground v.1.15,2013-12-13 21:32:00,
2013-12-13 15:33:00,21.6,13.0,30.27,NNE,32,5.0,8.0,69,0.00,,,0.00,46,Wunderground v.1.15,2013-12-13 21:33:00,
2013-12-13 15:36:00,21.6,13.0,30.26,ENE,70,6.0,8.0,69,0.00,,,0.00,42,Wunderground v.1.15,2013-12-13 21:36:00,
2013-12-13 15:37:00,21.6,13.0,30.26,NE,50,6.0,8.0,69,0.00,,,0.00,42,Wunderground v.1.15,2013-12-13 21:37:00,
2013-12-13 15:39:00,21.5,12.9,30.26,NNE,16,6.0,8.0,69,0.00,,,0.00,40,Wunderground v.1.15,2013-12-13 21:39:00,
2013-12-13 15:40:00,21.5,12.9,30.26,NE,34,6.0,6.0,69,0.00,,,0.00,40,Wunderground v.1.15,2013-12-13 21:40:00,
2013-12-13 15:41:00,21.5,12.9,30.26,NE,49,5.0,6.0,69,0.00,,,0.00,39,Wunderground v.1.15,2013-12-13 21:41:00,
2013-12-13 15:43:00,21.5,13.2,30.26,NE,36,5.0,6.0,70,0.00,,,0.00,35,Wunderground v.1.15,2013-12-13 21:43:00,
2013-12-13 15:46:00,21.5,12.9,30.26,NNE,15,5.0,9.0,69,0.00,,,0.00,32,Wunderground v.1.15,2013-12-13 21:46:00,
2013-12-13 15:48:00,21.4,12.8,30.26,North,360,6.0,10.0,69,0.00,,,0.00,30,Wunderground v.1.15,2013-12-13 21:48:00,
2013-12-13 15:49:00,21.4,12.8,30.27,ENE,69,7.0,10.0,69,0.00,,,0.00,28,Wunderground v.1.15,2013-12-13 21:49:00,
2013-12-13 15:51:00,21.3,12.7,30.26,NE,44,7.0,11.0,69,0.00,,,0.00,26,Wunderground v.1.15,2013-12-13 21:51:00,
2013-12-13 15:53:00,21.2,12.3,30.26,NE,43,8.0,11.0,68,0.00,,,0.00,25,Wunderground v.1.15,2013-12-13 21:53:00,
2013-12-13 15:54:00,21.2,12.3,30.27,NE,55,8.0,11.0,68,0.00,,,0.00,23,Wunderground v.1.15,2013-12-13 21:54:00,
2013-12-13 15:55:00,21.2,12.3,30.27,NNE,24,8.0,11.0,68,0.00,,,0.00,21,Wunderground v.1.15,2013-12-13 21:55:00,
2013-12-13 15:56:00,21.1,12.5,30.26,NE,37,8.0,11.0,69,0.00,,,0.00,21,Wunderground v.1.15,2013-12-13 21:56:00,
2013-12-13 16:00:00,21.1,12.5,30.27,NE,49,7.0,7.0,69,0.00,,,0.00,16,Wunderground v.1.15,2013-12-13 22:00:00,
2013-12-13 16:01:00,21.1,12.5,30.27,North,10,6.0,7.0,69,0.00,,,0.00,16,Wunderground v.1.15,2013-12-13 22:01:00,
2013-12-13 16:02:00,21.1,12.5,30.27,NE,49,6.0,12.0,69,0.00,,,0.00,16,Wunderground v.1.15,2013-12-13 22:02:00,
2013-12-13 16:03:00,21.0,12.4,30.27,NE,34,6.0,12.0,69,0.00,,,0.00,14,Wunderground v.1.15,2013-12-13 22:03:00,
2013-12-13 16:05:00,21.0,12.4,30.27,ENE,69,6.0,12.0,69,0.00,,,0.00,12,Wunderground v.1.15,2013-12-13 22:05:00,
2013-12-13 16:08:00,20.9,12.3,30.26,ENE,76,7.0,12.0,69,0.00,,,0.00,11,Wunderground v.1.15,2013-12-13 22:08:00,
2013-12-13 16:09:00,20.9,12.3,30.26,ENE,67,7.0,12.0,69,0.00,,,0.00,9,Wunderground v.1.15,2013-12-13 22:09:00,
2013-12-13 16:11:00,20.9,12.3,30.26,NNE,28,7.0,10.0,69,0.00,,,0.00,7,Wunderground v.1.15,2013-12-13 22:11:00,
2013-12-13 16:14:00,20.8,12.2,30.26,NW,322,7.0,10.0,69,0.00,,,0.00,5,Wunderground v.1.15,2013-12-13 22:14:00,
2013-12-13 16:16:00,20.8,12.2,30.26,NE,53,6.0,10.0,69,0.00,,,0.00,0,Wunderground v.1.15,2013-12-13 22:16:00,
2013-12-13 16:19:00,20.8,12.6,30.26,North,355,6.0,10.0,70,0.00,,,0.00,0,Wunderground v.1.15,2013-12-13 22:19:00,
2013-12-13 16:20:00,20.8,12.6,30.26,NE,53,5.0,7.0,70,0.00,,,0.00,0,Wunderground v.1.15,2013-12-13 22:20:00,
2013-12-13 16:21:00,20.8,12.6,30.26,NE,36,5.0,9.0,70,0.00,,,0.00,0,Wunderground v.1.15,2013-12-13 22:21:00,
2013-12-13 16:22:00,20.8,12.6,30.26,ENE,61,5.0,9.0,70,0.00,,,0.00,0,Wunderground v.1.15,2013-12-13 22:22:00,
2013-12-13 16:25:00,20.7,12.5,30.26,North,5,5.0,9.0,70,0.00,,,0.00,0,Wunderground v.1.15,2013-12-13 22:25:00,
2013-12-13 16:26:00,20.7,12.5,30.26,NE,44,5.0,9.0,70,0.00,,,0.00,0,Wunderground v.1.15,2013-12-13 22:26:00,
2013-12-13 16:27:00,20.8,12.6,30.26,NNE,24,5.0,9.0,70,0.00,,,0.00,0,Wunderground v.1.15,2013-12-13 22:27:00,
2013-12-13 16:28:00,20.7,12.5,30.26,NE,49,5.0,9.0,70,0.00,,,0.00,0,Wunderground v.1.15,2013-12-13 22:28:00,
2013-12-13 16:30:00,20.7,12.5,30.27,North,5,5.0,8.0,70,0.00,,,0.00,0,Wunderground v.1.15,2013-12-13 22:30:00,
2013-12-13 16:31:00,20.7,12.5,30.27,NNE,13,5.0,8.0,70,0.00,,,0.00,0,Wunderground v.1.15,2013-12-13 22:31:00,
2013-12-13 16:32:00,20.7,12.5,30.27,NNE,23,5.0,8.0,70,0.00,,,0.00,0,Wunderground v.1.15,2013-12-13 22:32:00,
2013-12-13 16:33:00,20.7,12.5,30.27,NE,46,5.0,8.0,70,0.00,,,0.00,0,Wunderground v.1.15,2013-12-13 22:33:00,
2013-12-13 16:36:00,20.6,12.4,30.27,NE,53,5.0,8.0,70,0.00,,,0.00,0,Wunderground v.1.15,2013-12-13 22:36:00,
2013-12-13 16:38:00,20.6,12.4,30.27,ENE,57,5.0,8.0,70,0.00,,,0.00,0,Wunderground v.1.15,2013-12-13 22:38:00,
2013-12-13 16:39:00,20.6,12.4,30.27,ENE,67,6.0,8.0,70,0.00,,,0.00,0,Wunderground v.1.15,2013-12-13 22:39:00,
2013-12-13 16:41:00,20.5,12.3,30.27,ENE,62,6.0,8.0,70,0.00,,,0.00,0,Wunderground v.1.15,2013-12-13 22:41:00,
2013-12-13 16:42:00,20.5,12.3,30.27,ENE,78,5.0,8.0,70,0.00,,,0.00,0,Wunderground v.1.15,2013-12-13 22:42:00,
2013-12-13 16:44:00,20.5,12.3,30.27,East,95,5.0,8.0,70,0.00,,,0.00,0,Wunderground v.1.15,2013-12-13 22:44:00,
2013-12-13 16:45:00,20.5,12.6,30.27,NE,46,5.0,8.0,71,0.00,,,0.00,0,Wunderground v.1.15,2013-12-13 22:45:00,
2013-12-13 16:48:00,20.5,12.6,30.27,ENE,61,6.0,8.0,71,0.00,,,0.00,0,Wunderground v.1.15,2013-12-13 22:48:00,
2013-12-13 16:49:00,20.5,12.6,30.27,NE,52,5.0,8.0,71,0.00,,,0.00,0,Wunderground v.1.15,2013-12-13 22:49:00,
2013-12-13 16:50:00,20.5,12.6,30.27,NNE,33,5.0,6.0,71,0.00,,,0.00,0,Wunderground v.1.15,2013-12-13 22:50:00,
2013-12-13 16:51:00,20.4,12.5,30.27,NE,42,5.0,12.0,71,0.00,,,0.00,0,Wunderground v.1.15,2013-12-13 22:51:00,
2013-12-13 16:53:00,20.4,12.5,30.27,NE,41,6.0,12.0,71,0.00,,,0.00,0,Wunderground v.1.15,2013-12-13 22:53:00,
2013-12-13 16:54:00,20.4,12.5,30.27,NE,35,7.0,12.0,71,0.00,,,0.00,0,Wunderground v.1.15,2013-12-13 22:54:00,
2013-12-13 16:56:00,20.4,12.5,30.27,NE,46,7.0,12.0,71,0.00,,,0.00,0,Wunderground v.1.15,2013-12-13 22:56:00,
2013-12-13 16:59:00,20.4,12.5,30.27,NE,55,7.0,12.0,71,0.00,,,0.00,0,Wunderground v.1.15,2013-12-13 22:59:00,
2013-12-13 17:00:00,20.3,12.4,30.27,NE,49,7.0,7.0,71,0.00,,,0.00,0,Wunderground v.1.15,2013-12-13 23:00:00,
2013-12-13 17:02:00,20.3,12.4,30.27,NE,51,6.0,7.0,71,0.00,,,0.00,0,Wunderground v.1.15,2013-12-13 23:02:00,
2013-12-13 17:03:00,20.3,12.4,30.28,NE,40,6.0,7.0,71,0.00,,,0.00,0,Wunderground v.1.15,2013-12-13 23:03:00,
2013-12-13 17:05:00,20.3,12.7,30.27,North,5,5.0,8.0,72,0.00,,,0.00,0,Wunderground v.1.15,2013-12-13 23:05:00,
2013-12-13 17:07:00,20.3,12.7,30.27,NNE,21,5.0,8.0,72,0.00,,,0.00,0,Wunderground v.1.15,2013-12-13 23:07:00,
2013-12-13 17:08:00,20.3,12.7,30.28,ENE,59,5.0,8.0,72,0.00,,,0.00,0,Wunderground v.1.15,2013-12-13 23:08:00,
2013-12-13 17:09:00,20.3,12.7,30.27,NE,42,5.0,8.0,72,0.00,,,0.00,0,Wunderground v.1.15,2013-12-13 23:09:00,
2013-12-13 17:10:00,20.3,12.7,30.27,NE,38,5.0,5.0,72,0.00,,,0.00,0,Wunderground v.1.15,2013-12-13 23:10:00,
2013-12-13 17:12:00,20.2,12.6,30.28,NE,48,5.0,10.0,72,0.00,,,0.00,0,Wunderground v.1.15,2013-12-13 23:12:00,
2013-12-13 17:13:00,20.2,12.6,30.28,NE,55,5.0,10.0,72,0.00,,,0.00,0,Wunderground v.1.15,2013-12-13 23:13:00,
2013-12-13 17:16:00,20.1,12.5,30.28,East,82,6.0,10.0,72,0.00,,,0.00,0,Wunderground v.1.15,2013-12-13 23:16:00,
2013-12-13 17:19:00,20.1,12.5,30.28,NNE,22,6.0,10.0,72,0.00,,,0.00,0,Wunderground v.1.15,2013-12-13 23:19:00,
2013-12-13 17:21:00,20.1,12.5,30.28,NNE,19,6.0,6.0,72,0.00,,,0.00,0,Wunderground v.1.15,2013-12-13 23:21:00,
2013-12-13 17:22:00,20.0,12.4,30.28,NNE,12,6.0,6.0,72,0.00,,,0.00,0,Wunderground v.1.15,2013-12-13 23:22:00,
2013-12-13 17:25:00,20.0,12.4,30.28,NNE,25,6.0,9.0,72,0.00,,,0.00,0,Wunderground v.1.15,2013-12-13 23:25:00,
2013-12-13 17:26:00,20.0,12.4,30.28,NNE,22,6.0,9.0,72,0.00,,,0.00,0,Wunderground v.1.15,2013-12-13 23:26:00,
2013-12-13 17:30:00,19.9,12.3,30.28,NE,42,6.0,6.0,72,0.00,,,0.00,0,Wunderground v.1.15,2013-12-13 23:30:00,
2013-12-13 17:33:00,19.8,12.5,30.28,NNE,30,6.0,6.0,73,0.00,,,0.00,0,Wunderground v.1.15,2013-12-13 23:33:00,
2013-12-13 17:34:00,19.9,12.6,30.28,NNE,30,6.0,6.0,73,0.00,,,0.00,0,Wunderground v.1.15,2013-12-13 23:34:00,
2013-12-13 17:38:00,19.8,12.5,30.28,NE,53,5.0,8.0,73,0.00,,,0.00,0,Wunderground v.1.15,2013-12-13 23:38:00,
2013-12-13 17:39:00,19.8,12.5,30.29,NE,47,5.0,8.0,73,0.00,,,0.00,0,Wunderground v.1.15,2013-12-13 23:39:00,
2013-12-13 17:40:00,19.8,12.5,30.29,ENE,74,5.0,5.0,73,0.00,,,0.00,0,Wunderground v.1.15,2013-12-13 23:40:00,
2013-12-13 17:41:00,19.7,12.4,30.29,NE,49,5.0,8.0,73,0.00,,,0.00,0,Wunderground v.1.15,2013-12-13 23:41:00,
2013-12-13 17:42:00,19.7,12.4,30.29,NE,43,5.0,8.0,73,0.00,,,0.00,0,Wunderground v.1.15,2013-12-13 23:42:00,
2013-12-13 17:43:00,19.6,12.3,30.28,ENE,74,6.0,8.0,73,0.00,,,0.00,0,Wunderground v.1.15,2013-12-13 23:43:00,
2013-12-13 17:44:00,19.6,12.3,30.29,NE,38,6.0,8.0,73,0.00,,,0.00,0,Wunderground v.1.15,2013-12-13 23:44:00,
2013-12-13 17:45:00,19.5,12.3,30.29,ENE,61,7.0,12.0,73,0.00,,,0.00,0,Wunderground v.1.15,2013-12-13 23:45:00,
2013-12-13 17:47:00,19.4,12.2,30.29,NE,46,7.0,12.0,73,0.00,,,0.00,0,Wunderground v.1.15,2013-12-13 23:47:00,
2013-12-13 17:48:00,19.4,12.2,30.29,ENE,65,8.0,12.0,73,0.00,,,0.00,0,Wunderground v.1.15,2013-12-13 23:48:00,
2013-12-13 17:49:00,19.3,12.1,30.29,NNE,24,8.0,12.0,73,0.00,,,0.00,0,Wunderground v.1.15,2013-12-13 23:49:00,
2013-12-13 17:52:00,19.2,12.3,30.29,NNE,14,8.0,11.0,74,0.00,,,0.00,0,Wunderground v.1.15,2013-12-13 23:52:00,
2013-12-13 17:54:00,19.2,12.3,30.29,NNE,26,8.0,11.0,74,0.00,,,0.00,0,Wunderground v.1.15,2013-12-13 23:54:00,
2013-12-13 17:55:00,19.1,11.9,30.29,NNE,26,8.0,11.0,73,0.00,,,0.00,0,Wunderground v.1.15,2013-12-13 23:55:00,
2013-12-13 17:57:00,19.0,12.1,30.29,NE,52,7.0,11.0,74,0.00,,,0.00,0,Wunderground v.1.15,2013-12-13 23:57:00,
2013-12-13 17:59:00,19.0,12.1,30.30,North,11,7.0,11.0,74,0.00,,,0.00,0,Wunderground v.1.15,2013-12-13 23:59:00,
2013-12-13 18:00:00,18.9,12.0,30.29,NNE,33,8.0,12.0,74,0.00,,,0.00,0,Wunderground v.1.15,2013-12-14 00:00:00,
2013-12-13 18:01:00,18.9,12.0,30.30,NNE,18,8.0,12.0,74,0.00,,,0.00,0,Wunderground v.1.15,2013-12-14 00:01:00,
2013-12-13 18:02:00,18.8,11.9,30.30,NNE,21,8.0,12.0,74,0.00,,,0.00,0,Wunderground v.1.15,2013-12-14 00:02:00,
2013-12-13 18:08:00,18.7,11.8,30.30,North,5,10.0,14.0,74,0.00,,,0.00,0,Wunderground v.1.15,2013-12-14 00:08:00,
2013-12-13 18:09:00,18.6,11.7,30.30,NE,45,10.0,14.0,74,0.00,,,0.00,0,Wunderground v.1.15,2013-12-14 00:09:00,
2013-12-13 18:11:00,18.6,11.7,30.30,NE,49,9.0,10.0,74,0.00,,,0.00,0,Wunderground v.1.15,2013-12-14 00:11:00,
2013-12-13 18:13:00,18.6,12.0,30.30,ENE,57,9.0,13.0,75,0.00,,,0.00,0,Wunderground v.1.15,2013-12-14 00:13:00,
2013-12-13 18:15:00,18.5,11.9,30.30,NNE,27,8.0,13.0,75,0.00,,,0.00,0,Wunderground v.1.15,2013-12-14 00:15:00,
2013-12-13 18:16:00,18.5,11.9,30.30,North,360,8.0,13.0,75,0.00,,,0.00,0,Wunderground v.1.15,2013-12-14 00:16:00,
2013-12-13 18:18:00,18.5,11.9,30.30,NE,55,8.0,13.0,75,0.00,,,0.00,0,Wunderground v.1.15,2013-12-14 00:18:00,
2013-12-13 18:23:00,18.4,11.8,30.30,NE,45,8.0,10.0,75,0.00,,,0.00,0,Wunderground v.1.15,2013-12-14 00:23:00,
2013-12-13 18:25:00,18.4,11.8,30.30,NE,47,7.0,10.0,75,0.00,,,0.00,0,Wunderground v.1.15,2013-12-14 00:25:00,
2013-12-13 18:26:00,18.4,11.8,30.30,ENE,66,7.0,10.0,75,0.00,,,0.00,0,Wunderground v.1.15,2013-12-14 00:26:00,
2013-12-13 18:29:00,18.3,11.7,30.30,NNE,27,6.0,10.0,75,0.00,,,0.00,0,Wunderground v.1.15,2013-12-14 00:29:00,
2013-12-13 18:31:00,18.3,11.7,30.31,NE,40,7.0,10.0,75,0.00,,,0.00,0,Wunderground v.1.15,2013-12-14 00:31:00,
2013-12-13 18:32:00,18.2,11.6,30.31,NE,44,7.0,10.0,75,0.00,,,0.00,0,Wunderground v.1.15,2013-12-14 00:32:00,
2013-12-13 18:35:00,18.2,11.6,30.31,NNE,19,8.0,13.0,75,0.00,,,0.00,0,Wunderground v.1.15,2013-12-14 00:35:00,
2013-12-13 18:36:00,18.1,11.5,30.31,NNE,30,8.0,13.0,75,0.00,,,0.00,0,Wunderground v.1.15,2013-12-14 00:36:00,
2013-12-13 18:37:00,18.1,11.5,30.30,NE,46,8.0,13.0,75,0.00,,,0.00,0,Wunderground v.1.15,2013-12-14 00:37:00,
2013-12-13 18:38:00,18.1,11.5,30.31,NE,45,9.0,18.0,75,0.00,,,0.00,0,Wunderground v.1.15,2013-12-14 00:38:00,
2013-12-13 18:39:00,18.0,11.4,30.31,ENE,74,9.0,18.0,75,0.00,,,0.00,0,Wunderground v.1.15,2013-12-14 00:39:00,
2013-12-13 18:41:00,18.0,11.4,30.31,North,355,9.0,12.0,75,0.00,,,0.00,0,Wunderground v.1.15,2013-12-14 00:41:00,
2013-12-13 18:43:00,17.9,11.3,30.31,NE,35,9.0,12.0,75,0.00,,,0.00,0,Wunderground v.1.15,2013-12-14 00:43:00,
2013-12-13 18:46:00,17.9,11.3,30.31,North,11,10.0,13.0,75,0.00,,,0.00,0,Wunderground v.1.15,2013-12-14 00:46:00,
2013-12-13 18:48:00,17.8,11.5,30.31,ENE,64,10.0,13.0,76,0.00,,,0.00,0,Wunderground v.1.15,2013-12-14 00:48:00,
2013-12-13 18:49:00,17.8,11.5,30.31,NE,49,10.0,13.0,76,0.00,,,0.00,0,Wunderground v.1.15,2013-12-14 00:49:00,
2013-12-13 18:51:00,17.8,11.5,30.31,NNE,16,9.0,10.0,76,0.00,,,0.00,0,Wunderground v.1.15,2013-12-14 00:51:00,
2013-12-13 18:52:00,17.8,11.5,30.31,ENE,65,9.0,10.0,76,0.00,,,0.00,0,Wunderground v.1.15,2013-12-14 00:52:00,
2013-12-13 18:53:00,17.7,11.4,30.31,NNE,15,9.0,10.0,76,0.00,,,0.00,0,Wunderground v.1.15,2013-12-14 00:53:00,
2013-12-13 18:56:00,17.7,11.4,30.32,North,360,8.0,10.0,76,0.00,,,0.00,0,Wunderground v.1.15,2013-12-14 00:56:00,
2013-12-13 18:57:00,17.7,11.4,30.31,ENE,63,8.0,12.0,76,0.00,,,0.00,0,Wunderground v.1.15,2013-12-14 00:57:00,
2013-12-13 18:58:00,17.6,11.3,30.31,North,11,8.0,12.0,76,0.00,,,0.00,0,Wunderground v.1.15,2013-12-14 00:58:00,
2013-12-13 19:00:00,17.6,11.3,30.32,NE,47,8.0,11.0,76,0.00,,,0.00,0,Wunderground v.1.15,2013-12-14 01:00:00,
2013-12-13 19:01:00,17.5,11.2,30.32,NNE,33,8.0,11.0,76,0.00,,,0.00,0,Wunderground v.1.15,2013-12-14 01:01:00,
2013-12-13 19:02:00,17.5,11.2,30.32,NNE,19,8.0,11.0,76,0.00,,,0.00,0,Wunderground v.1.15,2013-12-14 01:02:00,
2013-12-13 19:05:00,17.4,11.1,30.32,North,355,9.0,11.0,76,0.00,,,0.00,0,Wunderground v.1.15,2013-12-14 01:05:00,
2013-12-13 19:10:00,17.4,11.4,30.32,North,5,7.0,12.0,77,0.00,,,0.00,0,Wunderground v.1.15,2013-12-14 01:10:00,
2013-12-13 19:11:00,17.3,11.3,30.32,North,360,7.0,12.0,77,0.00,,,0.00,0,Wunderground v.1.15,2013-12-14 01:11:00,
2013-12-13 19:13:00,17.3,11.3,30.32,North,11,6.0,12.0,77,0.00,,,0.00,0,Wunderground v.1.15,2013-12-14 01:13:00,
2013-12-13 19:16:00,17.2,11.2,30.32,NNE,16,7.0,12.0,77,0.00,,,0.00,0,Wunderground v.1.15,2013-12-14 01:16:00,
2013-12-13 19:17:00,17.2,11.2,30.32,NE,37,7.0,12.0,77,0.00,,,0.00,0,Wunderground v.1.15,2013-12-14 01:17:00,
2013-12-13 19:22:00,17.0,11.0,30.33,NE,39,6.0,9.0,77,0.00,,,0.00,0,Wunderground v.1.15,2013-12-14 01:22:00,
2013-12-13 19:23:00,17.0,11.0,30.33,NE,54,7.0,9.0,77,0.00,,,0.00,0,Wunderground v.1.15,2013-12-14 01:23:00,
2013-12-13 19:24:00,17.0,11.0,30.33,ENE,77,6.0,9.0,77,0.00,,,0.00,0,Wunderground v.1.15,2013-12-14 01:24:00,
2013-12-13 19:25:00,17.0,11.0,30.33,NE,44,6.0,9.0,77,0.00,,,0.00,0,Wunderground v.1.15,2013-12-14 01:25:00,
2013-12-13 19:26:00,17.0,11.3,30.33,NNE,12,6.0,9.0,78,0.00,,,0.00,0,Wunderground v.1.15,2013-12-14 01:26:00,
2013-12-13 19:28:00,16.9,11.2,30.33,NE,44,6.0,9.0,78,0.00,,,0.00,0,Wunderground v.1.15,2013-12-14 01:28:00,
2013-12-13 19:29:00,16.9,11.2,30.33,ENE,63,7.0,9.0,78,0.00,,,0.00,0,Wunderground v.1.15,2013-12-14 01:29:00,
2013-12-13 19:31:00,16.8,11.1,30.33,NNE,13,7.0,7.0,78,0.00,,,0.00,0,Wunderground v.1.15,2013-12-14 01:31:00,
2013-12-13 19:32:00,16.8,11.1,30.33,NNE,21,7.0,7.0,78,0.00,,,0.00,0,Wunderground v.1.15,2013-12-14 01:32:00,
2013-12-13 19:35:00,16.8,11.1,30.33,North,10,7.0,9.0,78,0.00,,,0.00,0,Wunderground v.1.15,2013-12-14 01:35:00,
2013-12-13 19:36:00,16.7,11.0,30.34,NNE,16,7.0,9.0,78,0.00,,,0.00,0,Wunderground v.1.15,2013-12-14 01:36:00,
2013-12-13 19:39:00,16.7,11.0,30.33,NNE,17,6.0,12.0,78,0.00,,,0.00,0,Wunderground v.1.15,2013-12-14 01:39:00,
2013-12-13 19:40:00,16.6,10.9,30.33,North,5,6.0,6.0,78,0.00,,,0.00,0,Wunderground v.1.15,2013-12-14 01:40:00,
2013-12-13 19:41:00,16.6,10.9,30.33,NNW,348,6.0,10.0,78,0.00,,,0.00,0,Wunderground v.1.15,2013-12-14 01:41:00,
2013-12-13 19:42:00,16.6,10.9,30.33,NNE,25,7.0,10.0,78,0.00,,,0.00,0,Wunderground v.1.15,2013-12-14 01:42:00,
2013-12-13 19:43:00,16.6,10.9,30.34,North,5,7.0,10.0,78,0.00,,,0.00,0,Wunderground v.1.15,2013-12-14 01:43:00,
2013-12-13 19:45:00,16.5,10.8,30.33,ENE,60,8.0,10.0,78,0.00,,,0.00,0,Wunderground v.1.15,2013-12-14 01:45:00,
2013-12-13 19:46:00,16.5,10.8,30.34,NE,49,8.0,10.0,78,0.00,,,0.00,0,Wunderground v.1.15,2013-12-14 01:46:00,
2013-12-13 19:48:00,16.5,10.8,30.34,East,99,8.0,10.0,78,0.00,,,0.00,0,Wunderground v.1.15,2013-12-14 01:48:00,
2013-12-13 19:50:00,16.5,10.5,30.34,NNE,21,8.0,8.0,77,0.00,,,0.00,0,Wunderground v.1.15,2013-12-14 01:50:00,
2013-12-13 19:51:00,16.4,10.4,30.34,NNE,29,8.0,8.0,77,0.00,,,0.00,0,Wunderground v.1.15,2013-12-14 01:51:00,
2013-12-13 19:52:00,16.5,10.5,30.34,ENE,77,7.0,8.0,77,0.00,,,0.00,0,Wunderground v.1.15,2013-12-14 01:52:00,
2013-12-13 19:53:00,16.4,10.7,30.34,NNE,26,6.0,8.0,78,0.00,,,0.00,0,Wunderground v.1.15,2013-12-14 01:53:00,
2013-12-13 19:54:00,16.4,10.7,30.34,NE,51,6.0,8.0,78,0.00,,,0.00,0,Wunderground v.1.15,2013-12-14 01:54:00,
2013-12-13 19:56:00,16.4,10.7,30.34,NE,36,5.0,8.0,78,0.00,,,0.00,0,Wunderground v.1.15,2013-12-14 01:56:00,
2013-12-13 19:57:00,16.4,10.7,30.34,NE,43,5.0,8.0,78,0.00,,,0.00,0,Wunderground v.1.15,2013-12-14 01:57:00,
2013-12-13 19:58:00,16.4,10.7,30.34,ENE,59,4.0,8.0,78,0.00,,,0.00,0,Wunderground v.1.15,2013-12-14 01:58:00,
2013-12-13 20:00:00,16.4,10.7,30.34,ENE,57,4.0,8.0,78,0.00,,,0.00,0,Wunderground v.1.15,2013-12-14 02:00:00,
2013-12-13 20:04:00,16.3,10.4,30.34,NNE,28,6.0,14.0,77,0.00,,,0.00,0,Wunderground v.1.15,2013-12-14 02:04:00,
2013-12-13 20:05:00,16.3,10.4,30.34,NE,53,6.0,14.0,77,0.00,,,0.00,0,Wunderground v.1.15,2013-12-14 02:05:00,
2013-12-13 20:06:00,16.3,10.4,30.34,NE,34,7.0,16.0,77,0.00,,,0.00,0,Wunderground v.1.15,2013-12-14 02:06:00,
2013-12-13 20:07:00,16.2,10.3,30.34,NNE,16,8.0,16.0,77,0.00,,,0.00,0,Wunderground v.1.15,2013-12-14 02:07:00,
2013-12-13 20:09:00,16.2,10.3,30.34,ENE,57,9.0,16.0,77,0.00,,,0.00,0,Wunderground v.1.15,2013-12-14 02:09:00,
2013-12-13 20:10:00,16.2,10.3,30.34,NE,51,9.0,9.0,77,0.00,,,0.00,0,Wunderground v.1.15,2013-12-14 02:10:00,
2013-12-13 20:12:00,16.2,10.3,30.34,NNE,25,8.0,9.0,77,0.00,,,0.00,0,Wunderground v.1.15,2013-12-14 02:12:00,
2013-12-13 20:13:00,16.2,10.3,30.34,NNE,19,7.0,9.0,77,0.00,,,0.00,0,Wunderground v.1.15,2013-12-14 02:13:00,
2013-12-13 20:14:00,16.2,10.3,30.34,NNE,19,7.0,9.0,77,0.00,,,0.00,0,Wunderground v.1.15,2013-12-14 02:14:00,
2013-12-13 20:16:00,16.2,10.3,30.34,North,5,6.0,9.0,77,0.00,,,0.00,0,Wunderground v.1.15,2013-12-14 02:16:00,
2013-12-13 20:17:00,16.2,10.3,30.34,NNE,13,6.0,9.0,77,0.00,,,0.00,0,Wunderground v.1.15,2013-12-14 02:17:00,
2013-12-13 20:18:00,16.2,10.3,30.34,NNE,14,6.0,9.0,77,0.00,,,0.00,0,Wunderground v.1.15,2013-12-14 02:18:00,
2013-12-13 20:19:00,16.2,10.3,30.34,ENE,57,5.0,10.0,77,0.00,,,0.00,0,Wunderground v.1.15,2013-12-14 02:19:00,
2013-12-13 20:22:00,16.1,10.2,30.34,NNE,32,6.0,8.0,77,0.00,,,0.00,0,Wunderground v.1.15,2013-12-14 02:22:00,
2013-12-13 20:23:00,16.1,10.2,30.34,NE,55,7.0,8.0,77,0.00,,,0.00,0,Wunderground v.1.15,2013-12-14 02:23:00,
2013-12-13 20:24:00,16.0,10.1,30.34,NE,53,7.0,8.0,77,0.00,,,0.00,0,Wunderground v.1.15,2013-12-14 02:24:00,
2013-12-13 20:27:00,15.9,9.7,30.34,ENE,64,8.0,8.0,76,0.00,,,0.00,0,Wunderground v.1.15,2013-12-14 02:27:00,
2013-12-13 20:29:00,15.9,9.7,30.34,NNE,32,8.0,8.0,76,0.00,,,0.00,0,Wunderground v.1.15,2013-12-14 02:29:00,
2013-12-13 20:30:00,15.9,9.7,30.34,ENE,63,8.0,8.0,76,0.00,,,0.00,0,Wunderground v.1.15,2013-12-14 02:30:00,
2013-12-13 20:33:00,15.9,9.7,30.34,North,5,7.0,12.0,76,0.00,,,0.00,0,Wunderground v.1.15,2013-12-14 02:33:00,
2013-12-13 20:36:00,15.8,9.6,30.34,North,355,7.0,12.0,76,0.00,,,0.00,0,Wunderground v.1.15,2013-12-14 02:36:00,
2013-12-13 20:39:00,15.7,9.5,30.34,North,5,7.0,13.0,76,0.00,,,0.00,0,Wunderground v.1.15,2013-12-14 02:39:00,
2013-12-13 20:41:00,15.7,9.2,30.34,ENE,71,8.0,10.0,75,0.00,,,0.00,0,Wunderground v.1.15,2013-12-14 02:41:00,
2013-12-13 20:42:00,15.7,9.2,30.34,NNE,22,8.0,10.0,75,0.00,,,0.00,0,Wunderground v.1.15,2013-12-14 02:42:00,
2013-12-13 20:43:00,15.6,9.1,30.34,NNW,335,8.0,10.0,75,0.00,,,0.00,0,Wunderground v.1.15,2013-12-14 02:43:00,
2013-12-13 20:45:00,15.6,9.1,30.34,NNE,16,7.0,10.0,75,0.00,,,0.00,0,Wunderground v.1.15,2013-12-14 02:45:00,
2013-12-13 20:47:00,15.6,9.1,30.34,NNE,24,7.0,10.0,75,0.00,,,0.00,0,Wunderground v.1.15,2013-12-14 02:47:00,
2013-12-13 20:50:00,15.5,8.7,30.34,NE,48,6.0,8.0,74,0.00,,,0.00,0,Wunderground v.1.15,2013-12-14 02:50:00,
2013-12-13 20:51:00,15.6,8.8,30.34,ENE,61,6.0,8.0,74,0.00,,,0.00,0,Wunderground v.1.15,2013-12-14 02:51:00,
2013-12-13 20:52:00,15.6,8.8,30.34,ENE,61,6.0,8.0,74,0.00,,,0.00,0,Wunderground v.1.15,2013-12-14 02:52:00,
2013-12-13 20:55:00,15.5,8.7,30.34,NE,34,5.0,8.0,74,0.00,,,0.00,0,Wunderground v.1.15,2013-12-14 02:55:00,
2013-12-13 20:56:00,15.5,8.7,30.34,NE,48,5.0,8.0,74,0.00,,,0.00,0,Wunderground v.1.15,2013-12-14 02:56:00,
2013-12-13 20:58:00,15.5,8.7,30.34,NE,54,5.0,8.0,74,0.00,,,0.00,0,Wunderground v.1.15,2013-12-14 02:58:00,
2013-12-13 20:59:00,15.5,8.7,30.34,NE,55,5.0,8.0,74,0.00,,,0.00,0,Wunderground v.1.15,2013-12-14 02:59:00,
2013-12-13 21:00:00,15.5,8.7,30.34,NNE,13,5.0,10.0,74,0.00,,,0.00,0,Wunderground v.1.15,2013-12-14 03:00:00,
2013-12-13 21:02:00,15.5,8.7,30.34,North,10,5.0,13.0,74,0.00,,,0.00,0,Wunderground v.1.15,2013-12-14 03:02:00,
2013-12-13 21:04:00,15.4,8.6,30.34,NNE,12,6.0,13.0,74,0.00,,,0.00,0,Wunderground v.1.15,2013-12-14 03:04:00,
2013-12-13 21:05:00,15.4,8.3,30.34,NE,36,6.0,13.0,73,0.00,,,0.00,0,Wunderground v.1.15,2013-12-14 03:05:00,
2013-12-13 21:07:00,15.3,8.2,30.34,NNE,17,7.0,13.0,73,0.00,,,0.00,0,Wunderground v.1.15,2013-12-14 03:07:00,
2013-12-13 21:08:00,15.3,8.2,30.34,NE,41,7.0,13.0,73,0.00,,,0.00,0,Wunderground v.1.15,2013-12-14 03:08:00,
2013-12-13 21:09:00,15.2,8.1,30.34,ENE,67,7.0,13.0,73,0.00,,,0.00,0,Wunderground v.1.15,2013-12-14 03:09:00,
2013-12-13 21:12:00,15.1,8.0,30.34,North,5,8.0,9.0,73,0.00,,,0.00,0,Wunderground v.1.15,2013-12-14 03:12:00,
2013-12-13 21:14:00,15.1,8.0,30.34,ENE,67,7.0,9.0,73,0.00,,,0.00,0,Wunderground v.1.15,2013-12-14 03:14:00,
2013-12-13 21:15:00,15.1,8.0,30.34,ENE,60,7.0,9.0,73,0.00,,,0.00,0,Wunderground v.1.15,2013-12-14 03:15:00,
2013-12-13 21:17:00,15.1,8.0,30.34,NE,55,7.0,9.0,73,0.00,,,0.00,0,Wunderground v.1.15,2013-12-14 03:17:00,
2013-12-13 21:18:00,15.0,7.9,30.34,ENE,62,7.0,9.0,73,0.00,,,0.00,0,Wunderground v.1.15,2013-12-14 03:18:00,
2013-12-13 21:19:00,15.0,7.9,30.34,East,82,6.0,9.0,73,0.00,,,0.00,0,Wunderground v.1.15,2013-12-14 03:19:00,
2013-12-13 21:21:00,15.0,7.9,30.34,North,5,5.0,6.0,73,0.00,,,0.00,0,Wunderground v.1.15,2013-12-14 03:21:00,
2013-12-13 21:22:00,15.1,8.0,30.34,NNE,32,5.0,9.0,73,0.00,,,0.00,0,Wunderground v.1.15,2013-12-14 03:22:00,
2013-12-13 21:23:00,15.0,7.9,30.34,North,9,5.0,9.0,73,0.00,,,0.00,0,Wunderground v.1.15,2013-12-14 03:23:00,
2013-12-13 21:25:00,15.0,7.6,30.34,NE,52,5.0,9.0,72,0.00,,,0.00,0,Wunderground v.1.15,2013-12-14 03:25:00,
2013-12-13 21:27:00,15.0,7.6,30.34,East,84,5.0,9.0,72,0.00,,,0.00,0,Wunderground v.1.15,2013-12-14 03:27:00,
2013-12-13 21:28:00,15.0,7.6,30.34,ENE,71,5.0,9.0,72,0.00,,,0.00,0,Wunderground v.1.15,2013-12-14 03:28:00,
2013-12-13 21:29:00,14.9,7.5,30.34,NE,37,6.0,9.0,72,0.00,,,0.00,0,Wunderground v.1.15,2013-12-14 03:29:00,
2013-12-13 21:30:00,14.9,7.5,30.34,ENE,59,6.0,6.0,72,0.00,,,0.00,0,Wunderground v.1.15,2013-12-14 03:30:00,
2013-12-13 21:32:00,14.9,7.5,30.34,NNE,33,6.0,9.0,72,0.00,,,0.00,0,Wunderground v.1.15,2013-12-14 03:32:00,
2013-12-13 21:33:00,14.9,7.5,30.34,North,9,6.0,9.0,72,0.00,,,0.00,0,Wunderground v.1.15,2013-12-14 03:33:00,
2013-12-13 21:34:00,14.9,7.5,30.34,NNE,13,6.0,9.0,72,0.00,,,0.00,0,Wunderground v.1.15,2013-12-14 03:34:00,
2013-12-13 21:36:00,14.9,7.5,30.34,North,355,6.0,9.0,72,0.00,,,0.00,0,Wunderground v.1.15,2013-12-14 03:36:00,
2013-12-13 21:38:00,14.9,7.5,30.34,East,90,6.0,9.0,72,0.00,,,0.00,0,Wunderground v.1.15,2013-12-14 03:38:00,
2013-12-13 21:40:00,14.9,7.5,30.34,NNE,20,6.0,6.0,72,0.00,,,0.00,0,Wunderground v.1.15,2013-12-14 03:40:00,
2013-12-13 21:42:00,14.9,7.5,30.34,ENE,72,6.0,6.0,72,0.00,,,0.00,0,Wunderground v.1.15,2013-12-14 03:42:00,
2013-12-13 21:43:00,14.9,7.5,30.34,ENE,72,5.0,6.0,72,0.00,,,0.00,0,Wunderground v.1.15,2013-12-14 03:43:00,
2013-12-13 21:44:00,14.9,7.5,30.34,NE,53,5.0,6.0,72,0.00,,,0.00,0,Wunderground v.1.15,2013-12-14 03:44:00,
2013-12-13 21:45:00,14.9,7.5,30.34,NE,37,5.0,6.0,72,0.00,,,0.00,0,Wunderground v.1.15,2013-12-14 03:45:00,
2013-12-13 21:47:00,14.9,7.5,30.34,NNE,23,4.0,7.0,72,0.00,,,0.00,0,Wunderground v.1.15,2013-12-14 03:47:00,
2013-12-13 21:49:00,14.9,7.5,30.34,ENE,68,5.0,11.0,72,0.00,,,0.00,0,Wunderground v.1.15,2013-12-14 03:49:00,
2013-12-13 21:50:00,14.9,7.5,30.34,NNE,17,5.0,5.0,72,0.00,,,0.00,0,Wunderground v.1.15,2013-12-14 03:50:00,
2013-12-13 21:51:00,14.9,7.5,30.34,NE,53,5.0,5.0,72,0.00,,,0.00,0,Wunderground v.1.15,2013-12-14 03:51:00,
2013-12-13 21:53:00,14.8,7.4,30.34,NNE,32,5.0,5.0,72,0.00,,,0.00,0,Wunderground v.1.15,2013-12-14 03:53:00,
2013-12-13 21:57:00,14.8,7.4,30.33,NNE,17,6.0,9.0,72,0.00,,,0.00,0,Wunderground v.1.15,2013-12-14 03:57:00,
2013-12-13 21:59:00,14.8,7.4,30.33,North,5,6.0,9.0,72,0.00,,,0.00,0,Wunderground v.1.15,2013-12-14 03:59:00,
2013-12-13 22:00:00,14.7,7.3,30.33,North,355,5.0,5.0,72,0.00,,,0.00,0,Wunderground v.1.15,2013-12-14 04:00:00,
2013-12-13 22:02:00,14.7,7.3,30.33,NNW,342,6.0,11.0,72,0.00,,,0.00,0,Wunderground v.1.15,2013-12-14 04:02:00,
2013-12-13 22:04:00,14.7,7.3,30.34,NNE,14,6.0,11.0,72,0.00,,,0.00,0,Wunderground v.1.15,2013-12-14 04:04:00,
2013-12-13 22:07:00,14.6,7.2,30.34,NNE,21,5.0,11.0,72,0.00,,,0.00,0,Wunderground v.1.15,2013-12-14 04:07:00,
2013-12-13 22:09:00,14.6,7.2,30.34,NNE,17,6.0,11.0,72,0.00,,,0.00,0,Wunderground v.1.15,2013-12-14 04:09:00,
2013-12-13 22:10:00,14.6,7.2,30.34,NNE,17,6.0,6.0,72,0.00,,,0.00,0,Wunderground v.1.15,2013-12-14 04:10:00,
2013-12-13 22:12:00,14.6,7.2,30.34,ENE,74,6.0,6.0,72,0.00,,,0.00,0,Wunderground v.1.15,2013-12-14 04:12:00,
2013-12-13 22:15:00,14.6,7.2,30.34,NNE,12,5.0,6.0,72,0.00,,,0.00,0,Wunderground v.1.15,2013-12-14 04:15:00,
2013-12-13 22:16:00,14.6,7.2,30.34,NNE,22,6.0,6.0,72,0.00,,,0.00,0,Wunderground v.1.15,2013-12-14 04:16:00,
2013-12-13 22:18:00,14.6,7.2,30.34,NNE,32,5.0,6.0,72,0.00,,,0.00,0,Wunderground v.1.15,2013-12-14 04:18:00,
2013-12-13 22:19:00,14.6,7.2,30.34,North,5,4.0,6.0,72,0.00,,,0.00,0,Wunderground v.1.15,2013-12-14 04:19:00,
2013-12-13 22:20:00,14.6,7.2,30.34,ENE,61,4.0,5.0,72,0.00,,,0.00,0,Wunderground v.1.15,2013-12-14 04:20:00,
2013-12-13 22:21:00,14.6,7.2,30.34,NNE,18,4.0,5.0,72,0.00,,,0.00,0,Wunderground v.1.15,2013-12-14 04:21:00,
2013-12-13 22:23:00,14.6,7.2,30.34,NE,50,4.0,8.0,72,0.00,,,0.00,0,Wunderground v.1.15,2013-12-14 04:23:00,
2013-12-13 22:24:00,14.6,7.2,30.34,NE,40,4.0,8.0,72,0.00,,,0.00,0,Wunderground v.1.15,2013-12-14 04:24:00,
2013-12-13 22:26:00,14.6,7.2,30.33,NNE,24,5.0,8.0,72,0.00,,,0.00,0,Wunderground v.1.15,2013-12-14 04:26:00,
2013-12-13 22:29:00,14.7,7.3,30.33,NNE,17,5.0,8.0,72,0.00,,,0.00,0,Wunderground v.1.15,2013-12-14 04:29:00,
2013-12-13 22:30:00,14.6,7.2,30.33,NNE,19,5.0,5.0,72,0.00,,,0.00,0,Wunderground v.1.15,2013-12-14 04:30:00,
2013-12-13 22:31:00,14.6,7.2,30.33,NNE,19,5.0,5.0,72,0.00,,,0.00,0,Wunderground v.1.15,2013-12-14 04:31:00,
2013-12-13 22:32:00,14.7,7.3,30.33,NNE,17,5.0,5.0,72,0.00,,,0.00,0,Wunderground v.1.15,2013-12-14 04:32:00,
2013-12-13 22:36:00,14.7,7.3,30.33,NE,37,4.0,6.0,72,0.00,,,0.00,0,Wunderground v.1.15,2013-12-14 04:36:00,
2013-12-13 22:38:00,14.7,7.3,30.33,NNE,33,4.0,8.0,72,0.00,,,0.00,0,Wunderground v.1.15,2013-12-14 04:38:00,
2013-12-13 22:39:00,14.7,7.3,30.33,NNE,33,4.0,8.0,72,0.00,,,0.00,0,Wunderground v.1.15,2013-12-14 04:39:00,
2013-12-13 22:40:00,14.7,7.3,30.33,NE,36,4.0,4.0,72,0.00,,,0.00,0,Wunderground v.1.15,2013-12-14 04:40:00,
2013-12-13 22:44:00,14.7,7.3,30.33,NE,46,4.0,7.0,72,0.00,,,0.00,0,Wunderground v.1.15,2013-12-14 04:44:00,
2013-12-13 22:45:00,14.7,7.3,30.33,NE,42,4.0,7.0,72,0.00,,,0.00,0,Wunderground v.1.15,2013-12-14 04:45:00,
2013-12-13 22:47:00,14.7,7.3,30.33,NE,53,5.0,8.0,72,0.00,,,0.00,0,Wunderground v.1.15,2013-12-14 04:47:00,
2013-12-13 22:52:00,14.7,7.3,30.33,NNE,17,5.0,9.0,72,0.00,,,0.00,0,Wunderground v.1.15,2013-12-14 04:52:00,
2013-12-13 22:53:00,14.7,7.0,30.33,NE,51,6.0,9.0,71,0.00,,,0.00,0,Wunderground v.1.15,2013-12-14 04:53:00,
2013-12-13 22:54:00,14.7,7.0,30.33,NNE,20,6.0,9.0,71,0.00,,,0.00,0,Wunderground v.1.15,2013-12-14 04:54:00,
2013-12-13 22:56:00,14.7,7.0,30.33,NE,39,7.0,9.0,71,0.00,,,0.00,0,Wunderground v.1.15,2013-12-14 04:56:00,
2013-12-13 22:57:00,14.7,7.0,30.33,ENE,59,7.0,10.0,71,0.00,,,0.00,0,Wunderground v.1.15,2013-12-14 04:57:00,
2013-12-13 22:59:00,14.7,7.0,30.33,NE,38,6.0,10.0,71,0.00,,,0.00,0,Wunderground v.1.15,2013-12-14 04:59:00,
2013-12-13 23:01:00,14.7,7.0,30.33,NNW,339,6.0,7.0,71,0.00,,,0.00,0,Wunderground v.1.15,2013-12-14 05:01:00,
2013-12-13 23:02:00,14.8,7.1,30.33,NNW,342,7.0,7.0,71,0.00,,,0.00,0,Wunderground v.1.15,2013-12-14 05:02:00,
2013-12-13 23:03:00,14.8,7.4,30.33,NE,55,6.0,7.0,72,0.00,,,0.00,0,Wunderground v.1.15,2013-12-14 05:03:00,
2013-12-13 23:04:00,14.8,7.4,30.33,North,11,6.0,7.0,72,0.00,,,0.00,0,Wunderground v.1.15,2013-12-14 05:04:00,
2013-12-13 23:06:00,14.8,7.1,30.33,NNE,15,5.0,7.0,71,0.00,,,0.00,0,Wunderground v.1.15,2013-12-14 05:06:00,
2013-12-13 23:09:00,14.8,7.4,30.33,NNE,23,4.0,7.0,72,0.00,,,0.00,0,Wunderground v.1.15,2013-12-14 05:09:00,
2013-12-13 23:11:00,14.8,7.4,30.33,ENE,67,4.0,5.0,72,0.00,,,0.00,0,Wunderground v.1.15,2013-12-14 05:11:00,
2013-12-13 23:14:00,14.8,7.4,30.33,East,79,3.0,5.0,72,0.00,,,0.00,0,Wunderground v.1.15,2013-12-14 05:14:00,
2013-12-13 23:16:00,14.8,7.4,30.33,NNE,19,3.0,5.0,72,0.00,,,0.00,0,Wunderground v.1.15,2013-12-14 05:16:00,
2013-12-13 23:20:00,14.8,7.4,30.33,NNE,29,3.0,3.0,72,0.00,,,0.00,0,Wunderground v.1.15,2013-12-14 05:20:00,
2013-12-13 23:21:00,14.8,7.4,30.33,NNE,14,2.0,5.0,72,0.00,,,0.00,0,Wunderground v.1.15,2013-12-14 05:21:00,
2013-12-13 23:22:00,14.8,7.4,30.33,NE,47,3.0,7.0,72,0.00,,,0.00,0,Wunderground v.1.15,2013-12-14 05:22:00,
2013-12-13 23:25:00,14.8,7.4,30.33,NNW,341,4.0,7.0,72,0.00,,,0.00,0,Wunderground v.1.15,2013-12-14 05:25:00,
2013-12-13 23:27:00,14.8,7.4,30.34,NNW,342,4.0,7.0,72,0.00,,,0.00,0,Wunderground v.1.15,2013-12-14 05:27:00,
2013-12-13 23:28:00,14.7,7.3,30.34,NNE,21,4.0,7.0,72,0.00,,,0.00,0,Wunderground v.1.15,2013-12-14 05:28:00,
2013-12-13 23:31:00,14.7,7.3,30.33,ENE,61,4.0,4.0,72,0.00,,,0.00,0,Wunderground v.1.15,2013-12-14 05:31:00,
2013-12-13 23:33:00,14.7,7.3,30.33,North,355,3.0,4.0,72,0.00,,,0.00,0,Wunderground v.1.15,2013-12-14 05:33:00,
2013-12-13 23:34:00,14.7,7.3,30.33,North,5,3.0,4.0,72,0.00,,,0.00,0,Wunderground v.1.15,2013-12-14 05:34:00,
2013-12-13 23:35:00,14.8,7.7,30.34,North,5,3.0,4.0,73,0.00,,,0.00,0,Wunderground v.1.15,2013-12-14 05:35:00,
2013-12-13 23:37:00,14.7,7.6,30.33,North,5,3.0,4.0,73,0.00,,,0.00,0,Wunderground v.1.15,2013-12-14 05:37:00,
2013-12-13 23:38:00,14.7,7.6,30.33,North,5,3.0,4.0,73,0.00,,,0.00,0,Wunderground v.1.15,2013-12-14 05:38:00,
2013-12-13 23:40:00,14.7,7.6,30.33,North,5,3.0,3.0,73,0.00,,,0.00,0,Wunderground v.1.15,2013-12-14 05:40:00,
2013-12-13 23:42:00,14.7,7.6,30.33,NNE,24,3.0,3.0,73,0.00,,,0.00,0,Wunderground v.1.15,2013-12-14 05:42:00,
2013-12-13 23:45:00,14.7,7.6,30.33,NNE,20,3.0,3.0,73,0.00,,,0.00,0,Wunderground v.1.15,2013-12-14 05:45:00,
2013-12-13 23:46:00,14.7,7.6,30.33,NNE,20,2.0,3.0,73,0.00,,,0.00,0,Wunderground v.1.15,2013-12-14 05:46:00,
2013-12-13 23:48:00,14.7,7.6,30.33,NE,45,2.0,3.0,73,0.00,,,0.00,0,Wunderground v.1.15,2013-12-14 05:48:00,
2013-12-13 23:49:00,14.7,7.6,30.33,NNE,27,2.0,5.0,73,0.00,,,0.00,0,Wunderground v.1.15,2013-12-14 05:49:00,
2013-12-13 23:50:00,14.7,7.6,30.33,NNE,15,2.0,2.0,73,0.00,,,0.00,0,Wunderground v.1.15,2013-12-14 05:50:00,
2013-12-13 23:51:00,14.7,7.6,30.33,NE,51,2.0,2.0,73,0.00,,,0.00,0,Wunderground v.1.15,2013-12-14 05:51:00,
2013-12-13 23:54:00,14.7,7.6,30.33,NE,47,3.0,6.0,73,0.00,,,0.00,0,Wunderground v.1.15,2013-12-14 05:54:00,
2013-12-13 23:55:00,14.7,7.6,30.33,NE,44,3.0,6.0,73,0.00,,,0.00,0,Wunderground v.1.15,2013-12-14 05:55:00,
2013-12-13 23:56:00,14.7,7.6,30.33,NNE,15,3.0,6.0,73,0.00,,,0.00,0,Wunderground v.1.15,2013-12-14 05:56:00,